Time,TemperatureF,DewpointF,PressureIn,WindDirection,WindDirectionDegrees,WindSpeedMPH,WindSpeedGustMPH,Humidity,HourlyPrecipIn,Conditions,Clouds,dailyrainin,SoftwareType,DateUTC
2013-02-12 00:10:00,54.1,38.7,30.12,ENE,67,3.0,3.0,56,0.00,,,0.00,WUHU21623XXSP,2013-02-12 06:10:00,
2013-02-12 00:15:00,53.8,38.4,30.09,ENE,67,5.0,9.0,56,0.00,,,0.00,WUHU21623XXSP,2013-02-12 06:15:00,
2013-02-12 00:16:00,53.8,38.4,30.09,ENE,63,5.0,9.0,56,0.00,,,0.00,WUHU21623XXSP,2013-02-12 06:16:00,
2013-02-12 00:20:00,53.8,38.9,30.09,ENE,64,5.0,9.0,57,0.00,,,0.00,WUHU21623XXSP,2013-02-12 06:20:00,
2013-02-12 00:21:00,53.8,38.9,30.09,East,90,7.0,9.0,57,0.00,,,0.00,WUHU21623XXSP,2013-02-12 06:21:00,
2013-02-12 00:25:00,53.8,38.9,30.09,ESE,112,7.0,10.0,57,0.00,,,0.00,WUHU21623XXSP,2013-02-12 06:25:00,
2013-02-12 00:26:00,53.6,38.7,30.09,SE,135,7.0,10.0,57,0.00,,,0.00,WUHU21623XXSP,2013-02-12 06:26:00,
2013-02-12 00:30:00,53.8,38.9,30.09,East,100,7.0,12.0,57,0.00,,,0.00,WUHU21623XXSP,2013-02-12 06:30:00,
2013-02-12 00:31:00,53.6,38.7,30.09,East,99,6.0,12.0,57,0.00,,,0.00,WUHU21623XXSP,2013-02-12 06:31:00,
2013-02-12 00:35:00,53.6,38.7,30.08,East,93,6.0,12.0,57,0.00,,,0.00,WUHU21623XXSP,2013-02-12 06:35:00,
2013-02-12 00:36:00,53.6,38.7,30.08,East,93,6.0,12.0,57,0.00,,,0.00,WUHU21623XXSP,2013-02-12 06:36:00,
2013-02-12 00:40:00,53.4,38.5,30.07,East,90,8.0,12.0,57,0.00,,,0.00,WUHU21623XXSP,2013-02-12 06:40:00,
2013-02-12 00:41:00,53.4,38.5,30.07,East,89,8.0,12.0,57,0.00,,,0.00,WUHU21623XXSP,2013-02-12 06:41:00,
2013-02-12 00:46:00,53.4,38.5,30.07,ENE,67,8.0,13.0,57,0.00,,,0.00,WUHU21623XXSP,2013-02-12 06:46:00,
2013-02-12 00:47:00,53.4,38.5,30.07,NE,45,10.0,13.0,57,0.00,,,0.00,WUHU21623XXSP,2013-02-12 06:47:00,
2013-02-12 00:51:00,53.4,39.0,30.07,East,90,8.0,13.0,58,0.00,,,0.00,WUHU21623XXSP,2013-02-12 06:51:00,
2013-02-12 00:52:00,53.4,39.0,30.06,NE,45,8.0,12.0,58,0.00,,,0.00,WUHU21623XXSP,2013-02-12 06:52:00,
2013-02-12 00:56:00,53.4,39.0,30.05,ENE,67,9.0,12.0,58,0.00,,,0.00,WUHU21623XXSP,2013-02-12 06:56:00,
2013-02-12 00:57:00,53.2,38.8,30.05,ENE,67,8.0,12.0,58,0.00,,,0.00,WUHU21623XXSP,2013-02-12 06:57:00,
2013-02-12 01:01:00,53.2,38.8,30.05,NE,45,11.0,11.0,58,0.00,,,0.00,WUHU21623XXSP,2013-02-12 07:01:00,
2013-02-12 01:02:00,53.2,38.8,30.05,NE,48,7.0,11.0,58,0.00,,,0.00,WUHU21623XXSP,2013-02-12 07:02:00,
2013-02-12 01:06:00,53.1,38.6,30.04,NE,54,5.0,11.0,58,0.00,,,0.00,WUHU21623XXSP,2013-02-12 07:06:00,
2013-02-12 01:07:00,53.1,38.6,30.04,NNE,22,9.0,11.0,58,0.00,,,0.00,WUHU21623XXSP,2013-02-12 07:07:00,
2013-02-12 01:11:00,52.9,38.4,30.05,ENE,74,7.0,11.0,58,0.00,,,0.00,WUHU21623XXSP,2013-02-12 07:11:00,
2013-02-12 01:12:00,52.9,38.4,30.05,ENE,78,6.0,11.0,58,0.00,,,0.00,WUHU21623XXSP,2013-02-12 07:12:00,
2013-02-12 01:16:00,52.9,38.4,30.05,East,90,7.0,11.0,58,0.00,,,0.00,WUHU21623XXSP,2013-02-12 07:16:00,
2013-02-12 01:17:00,52.9,38.4,30.05,East,89,5.0,11.0,58,0.00,,,0.00,WUHU21623XXSP,2013-02-12 07:17:00,
2013-02-12 01:21:00,52.9,38.4,30.05,East,80,5.0,11.0,58,0.00,,,0.00,WUHU21623XXSP,2013-02-12 07:21:00,
2013-02-12 01:22:00,52.9,38.4,30.05,ENE,73,5.0,11.0,58,0.00,,,0.00,WUHU21623XXSP,2013-02-12 07:22:00,
2013-02-12 01:26:00,52.9,38.9,30.07,NE,56,4.0,9.0,59,0.00,,,0.00,WUHU21623XXSP,2013-02-12 07:26:00,
2013-02-12 01:27:00,52.9,38.9,30.08,ENE,66,3.0,9.0,59,0.00,,,0.00,WUHU21623XXSP,2013-02-12 07:27:00,
2013-02-12 01:31:00,52.9,38.9,30.10,NE,45,5.0,9.0,59,0.00,,,0.00,WUHU21623XXSP,2013-02-12 07:31:00,
2013-02-12 01:32:00,52.9,38.9,30.10,East,90,5.0,9.0,59,0.00,,,0.00,WUHU21623XXSP,2013-02-12 07:32:00,
2013-02-12 01:36:00,52.9,38.9,30.08,ENE,75,3.0,8.0,59,0.00,,,0.00,WUHU21623XXSP,2013-02-12 07:36:00,
2013-02-12 01:37:00,52.9,38.9,30.08,East,90,4.0,8.0,59,0.00,,,0.00,WUHU21623XXSP,2013-02-12 07:37:00,
2013-02-12 01:38:00,52.9,38.9,30.08,East,90,7.0,8.0,59,0.00,,,0.00,WUHU21623XXSP,2013-02-12 07:38:00,
2013-02-12 01:41:00,52.9,38.9,30.07,ESE,112,12.0,12.0,59,0.00,,,0.00,WUHU21623XXSP,2013-02-12 07:41:00,
2013-02-12 01:42:00,53.1,39.1,30.06,East,95,8.0,12.0,59,0.00,,,0.00,WUHU21623XXSP,2013-02-12 07:42:00,
2013-02-12 01:43:00,53.1,39.1,30.06,East,98,8.0,12.0,59,0.00,,,0.00,WUHU21623XXSP,2013-02-12 07:43:00,
2013-02-12 01:46:00,53.2,39.3,30.05,East,90,10.0,12.0,59,0.00,,,0.00,WUHU21623XXSP,2013-02-12 07:46:00,
2013-02-12 01:47:00,53.2,39.3,30.05,ENE,67,8.0,12.0,59,0.00,,,0.00,WUHU21623XXSP,2013-02-12 07:47:00,
2013-02-12 01:48:00,53.2,39.3,30.05,ENE,75,6.0,12.0,59,0.00,,,0.00,WUHU21623XXSP,2013-02-12 07:48:00,
2013-02-12 01:52:00,53.2,39.3,30.06,ESE,112,8.0,10.0,59,0.00,,,0.00,WUHU21623XXSP,2013-02-12 07:52:00,
2013-02-12 01:53:00,53.2,39.3,30.06,East,93,6.0,10.0,59,0.00,,,0.00,WUHU21623XXSP,2013-02-12 07:53:00,
2013-02-12 01:57:00,53.2,39.3,30.06,ESE,111,7.0,13.0,59,0.00,,,0.00,WUHU21623XXSP,2013-02-12 07:57:00,
2013-02-12 01:58:00,53.2,39.3,30.06,ESE,112,5.0,13.0,59,0.00,,,0.00,WUHU21623XXSP,2013-02-12 07:58:00,
2013-02-12 02:02:00,53.2,39.3,30.09,ESE,118,5.0,13.0,59,0.00,,,0.00,WUHU21623XXSP,2013-02-12 08:02:00,
2013-02-12 02:03:00,53.2,39.3,30.09,ESE,118,5.0,13.0,59,0.00,,,0.00,WUHU21623XXSP,2013-02-12 08:03:00,
2013-02-12 02:07:00,53.2,39.3,30.11,SE,144,2.0,10.0,59,0.00,,,0.00,WUHU21623XXSP,2013-02-12 08:07:00,
2013-02-12 02:08:00,53.2,39.3,30.11,ESE,111,2.0,7.0,59,0.00,,,0.00,WUHU21623XXSP,2013-02-12 08:08:00,
2013-02-12 02:12:00,53.2,39.3,30.10,East,87,4.0,5.0,59,0.00,,,0.00,WUHU21623XXSP,2013-02-12 08:12:00,
2013-02-12 02:13:00,53.2,39.3,30.10,East,92,4.0,5.0,59,0.00,,,0.00,WUHU21623XXSP,2013-02-12 08:13:00,
2013-02-12 02:14:00,53.2,39.3,30.10,ESE,105,4.0,5.0,59,0.00,,,0.00,WUHU21623XXSP,2013-02-12 08:14:00,
2013-02-12 02:18:00,53.2,39.3,30.11,ESE,112,5.0,6.0,59,0.00,,,0.00,WUHU21623XXSP,2013-02-12 08:18:00,
2013-02-12 02:19:00,53.4,39.5,30.10,ESE,112,8.0,8.0,59,0.00,,,0.00,WUHU21623XXSP,2013-02-12 08:19:00,
2013-02-12 02:23:00,53.4,39.5,30.07,East,90,11.0,11.0,59,0.00,,,0.00,WUHU21623XXSP,2013-02-12 08:23:00,
2013-02-12 02:24:00,53.4,39.9,30.07,East,93,8.0,11.0,60,0.00,,,0.00,WUHU21623XXSP,2013-02-12 08:24:00,
2013-02-12 02:28:00,53.4,39.9,30.07,ESE,108,5.0,11.0,60,0.00,,,0.00,WUHU21623XXSP,2013-02-12 08:28:00,
2013-02-12 02:29:00,53.4,39.9,30.07,ESE,112,8.0,11.0,60,0.00,,,0.00,WUHU21623XXSP,2013-02-12 08:29:00,
2013-02-12 02:33:00,53.4,39.9,30.07,East,82,5.0,12.0,60,0.00,,,0.00,WUHU21623XXSP,2013-02-12 08:33:00,
2013-02-12 02:34:00,53.4,39.9,30.07,ENE,63,4.0,12.0,60,0.00,,,0.00,WUHU21623XXSP,2013-02-12 08:34:00,
2013-02-12 02:38:00,53.2,39.7,30.07,NE,49,4.0,12.0,60,0.00,,,0.00,WUHU21623XXSP,2013-02-12 08:38:00,
2013-02-12 02:39:00,53.2,39.7,30.07,NE,47,3.0,12.0,60,0.00,,,0.00,WUHU21623XXSP,2013-02-12 08:39:00,
2013-02-12 02:43:00,53.2,39.7,30.07,NNE,22,3.0,7.0,60,0.00,,,0.00,WUHU21623XXSP,2013-02-12 08:43:00,
2013-02-12 02:44:00,53.2,39.7,30.07,NNE,22,7.0,7.0,60,0.00,,,0.00,WUHU21623XXSP,2013-02-12 08:44:00,
2013-02-12 02:45:00,53.2,39.7,30.07,NNE,26,3.0,7.0,60,0.00,,,0.00,WUHU21623XXSP,2013-02-12 08:45:00,
2013-02-12 02:48:00,53.2,39.7,30.07,NNE,29,5.0,7.0,60,0.00,,,0.00,WUHU21623XXSP,2013-02-12 08:48:00,
2013-02-12 02:49:00,53.2,39.7,30.08,NNE,22,6.0,7.0,60,0.00,,,0.00,WUHU21623XXSP,2013-02-12 08:49:00,
2013-02-12 02:50:00,53.2,39.7,30.08,NE,36,4.0,7.0,60,0.00,,,0.00,WUHU21623XXSP,2013-02-12 08:50:00,
2013-02-12 02:53:00,53.2,40.1,30.09,NNW,337,3.0,7.0,61,0.00,,,0.00,WUHU21623XXSP,2013-02-12 08:53:00,
2013-02-12 02:54:00,53.1,40.0,30.09,North,0,3.0,7.0,61,0.00,,,0.00,WUHU21623XXSP,2013-02-12 08:54:00,
2013-02-12 02:55:00,52.9,39.8,30.09,North,358,2.0,7.0,61,0.00,,,0.00,WUHU21623XXSP,2013-02-12 08:55:00,
2013-02-12 02:58:00,52.9,39.8,30.09,NNE,25,3.0,6.0,61,0.00,,,0.00,WUHU21623XXSP,2013-02-12 08:58:00,
2013-02-12 02:59:00,52.9,39.8,30.09,NNW,337,4.0,5.0,61,0.00,,,0.00,WUHU21623XXSP,2013-02-12 08:59:00,
2013-02-12 03:00:00,52.9,39.8,30.09,North,2,3.0,5.0,61,0.00,,,0.00,WUHU21623XXSP,2013-02-12 09:00:00,
2013-02-12 03:03:00,52.7,40.0,30.08,NE,45,4.0,5.0,62,0.00,,,0.00,WUHU21623XXSP,2013-02-12 09:03:00,
2013-02-12 03:05:00,52.7,40.0,30.08,NNE,21,3.0,5.0,62,0.00,,,0.00,WUHU21623XXSP,2013-02-12 09:05:00,
2013-02-12 03:08:00,52.5,39.8,30.08,NE,45,7.0,7.0,62,0.00,,,0.00,WUHU21623XXSP,2013-02-12 09:08:00,
2013-02-12 03:10:00,52.5,39.8,30.08,NNE,22,7.0,7.0,62,0.00,,,0.00,WUHU21623XXSP,2013-02-12 09:10:00,
2013-02-12 03:13:00,52.5,40.2,30.08,NE,36,3.0,8.0,63,0.00,,,0.00,WUHU21623XXSP,2013-02-12 09:13:00,
2013-02-12 03:15:00,52.5,40.2,30.08,NE,51,3.0,8.0,63,0.00,,,0.00,WUHU21623XXSP,2013-02-12 09:15:00,
2013-02-12 03:19:00,52.7,40.4,30.09,ENE,75,3.0,8.0,63,0.00,,,0.00,WUHU21623XXSP,2013-02-12 09:19:00,
2013-02-12 03:20:00,52.7,40.4,30.07,ESE,112,5.0,5.0,63,0.00,,,0.00,WUHU21623XXSP,2013-02-12 09:20:00,
2013-02-12 03:21:00,52.7,40.0,30.07,ENE,67,5.0,5.0,62,0.00,,,0.00,WUHU21623XXSP,2013-02-12 09:21:00,
2013-02-12 03:24:00,52.9,40.2,30.05,ENE,67,9.0,9.0,62,0.00,,,0.00,WUHU21623XXSP,2013-02-12 09:24:00,
2013-02-12 03:25:00,52.9,40.6,30.05,ENE,64,6.0,9.0,63,0.00,,,0.00,WUHU21623XXSP,2013-02-12 09:25:00,
2013-02-12 03:26:00,52.9,40.6,30.05,NNE,22,7.0,9.0,63,0.00,,,0.00,WUHU21623XXSP,2013-02-12 09:26:00,
2013-02-12 03:29:00,52.9,40.6,30.05,NE,45,6.0,9.0,63,0.00,,,0.00,WUHU21623XXSP,2013-02-12 09:29:00,
2013-02-12 03:30:00,52.9,40.6,30.04,NE,42,8.0,11.0,63,0.00,,,0.00,WUHU21623XXSP,2013-02-12 09:30:00,
2013-02-12 03:31:00,52.9,40.6,30.04,NE,41,7.0,11.0,63,0.00,,,0.00,WUHU21623XXSP,2013-02-12 09:31:00,
2013-02-12 03:34:00,52.9,40.6,30.04,NNE,28,4.0,11.0,63,0.00,,,0.00,WUHU21623XXSP,2013-02-12 09:34:00,
2013-02-12 03:35:00,52.9,40.6,30.04,NE,38,4.0,11.0,63,0.00,,,0.00,WUHU21623XXSP,2013-02-12 09:35:00,
2013-02-12 03:36:00,52.9,40.6,30.04,NE,42,3.0,11.0,63,0.00,,,0.00,WUHU21623XXSP,2013-02-12 09:36:00,
2013-02-12 03:39:00,52.7,40.4,30.05,NE,39,4.0,11.0,63,0.00,,,0.00,WUHU21623XXSP,2013-02-12 09:39:00,
2013-02-12 03:40:00,52.7,40.4,30.05,NE,37,3.0,8.0,63,0.00,,,0.00,WUHU21623XXSP,2013-02-12 09:40:00,
2013-02-12 03:41:00,52.7,40.4,30.05,NNE,22,5.0,7.0,63,0.00,,,0.00,WUHU21623XXSP,2013-02-12 09:41:00,
2013-02-12 03:44:00,52.5,40.2,30.06,NE,52,4.0,7.0,63,0.00,,,0.00,WUHU21623XXSP,2013-02-12 09:44:00,
2013-02-12 03:46:00,52.5,40.2,30.06,NE,45,3.0,7.0,63,0.00,,,0.00,WUHU21623XXSP,2013-02-12 09:46:00,
2013-02-12 03:47:00,52.5,40.2,30.05,East,90,6.0,7.0,63,0.00,,,0.00,WUHU21623XXSP,2013-02-12 09:47:00,
2013-02-12 03:49:00,52.5,40.2,30.03,NE,45,7.0,10.0,63,0.00,,,0.00,WUHU21623XXSP,2013-02-12 09:49:00,
2013-02-12 03:51:00,52.5,40.6,30.03,ENE,67,7.0,10.0,64,0.00,,,0.00,WUHU21623XXSP,2013-02-12 09:51:00,
2013-02-12 03:52:00,52.5,40.6,30.03,NE,56,6.0,10.0,64,0.00,,,0.00,WUHU21623XXSP,2013-02-12 09:52:00,
2013-02-12 03:54:00,52.5,40.6,30.03,NE,45,5.0,10.0,64,0.02,,,0.00,WUHU21623XXSP,2013-02-12 09:54:00,
2013-02-12 03:56:00,52.5,40.6,30.03,NE,45,5.0,10.0,64,0.02,,,0.02,WUHU21623XXSP,2013-02-12 09:56:00,
2013-02-12 03:57:00,52.5,40.6,30.03,NE,45,7.0,10.0,64,0.02,,,0.02,WUHU21623XXSP,2013-02-12 09:57:00,
2013-02-12 04:00:00,52.5,40.6,30.04,NNE,33,5.0,9.0,64,0.02,,,0.02,WUHU21623XXSP,2013-02-12 10:00:00,
2013-02-12 04:01:00,52.5,40.6,30.04,NE,54,4.0,9.0,64,0.02,,,0.02,WUHU21623XXSP,2013-02-12 10:01:00,
2013-02-12 04:02:00,52.5,40.6,30.03,ENE,78,4.0,9.0,64,0.02,,,0.02,WUHU21623XXSP,2013-02-12 10:02:00,
2013-02-12 04:05:00,52.5,40.6,30.04,ENE,57,3.0,9.0,64,0.02,,,0.02,WUHU21623XXSP,2013-02-12 10:05:00,
2013-02-12 04:06:00,52.5,40.6,30.04,ENE,70,3.0,9.0,64,0.02,,,0.02,WUHU21623XXSP,2013-02-12 10:06:00,
2013-02-12 04:07:00,52.5,40.6,30.04,ENE,71,3.0,9.0,64,0.02,,,0.02,WUHU21623XXSP,2013-02-12 10:07:00,
2013-02-12 04:10:00,52.5,40.6,30.04,NE,48,3.0,5.0,64,0.02,,,0.02,WUHU21623XXSP,2013-02-12 10:10:00,
2013-02-12 04:11:00,52.5,40.6,30.03,ENE,67,4.0,5.0,64,0.02,,,0.02,WUHU21623XXSP,2013-02-12 10:11:00,
2013-02-12 04:12:00,52.5,40.6,30.03,ENE,62,4.0,5.0,64,0.02,,,0.02,WUHU21623XXSP,2013-02-12 10:12:00,
2013-02-12 04:15:00,52.5,40.6,30.03,NNE,22,6.0,7.0,64,0.02,,,0.02,WUHU21623XXSP,2013-02-12 10:15:00,
2013-02-12 04:16:00,52.5,40.6,30.03,NNE,22,4.0,7.0,64,0.02,,,0.02,WUHU21623XXSP,2013-02-12 10:16:00,
2013-02-12 04:17:00,52.5,40.6,30.02,NE,45,5.0,7.0,64,0.02,,,0.02,WUHU21623XXSP,2013-02-12 10:17:00,
2013-02-12 04:18:00,52.5,40.6,30.02,ENE,67,5.0,7.0,64,0.02,,,0.02,WUHU21623XXSP,2013-02-12 10:18:00,
2013-02-12 04:20:00,52.5,40.6,30.02,ENE,67,7.0,8.0,64,0.02,,,0.02,WUHU21623XXSP,2013-02-12 10:20:00,
2013-02-12 04:21:00,52.5,40.6,30.02,NE,45,6.0,8.0,64,0.02,,,0.02,WUHU21623XXSP,2013-02-12 10:21:00,
2013-02-12 04:23:00,52.5,40.6,30.02,NE,40,5.0,9.0,64,0.02,,,0.02,WUHU21623XXSP,2013-02-12 10:23:00,
2013-02-12 04:25:00,52.5,40.6,30.02,NE,36,6.0,9.0,64,0.02,,,0.02,WUHU21623XXSP,2013-02-12 10:25:00,
2013-02-12 04:26:00,52.3,40.5,30.02,NE,45,5.0,9.0,64,0.02,,,0.02,WUHU21623XXSP,2013-02-12 10:26:00,
2013-02-12 04:28:00,52.3,40.5,30.02,NE,40,3.0,9.0,64,0.02,,,0.02,WUHU21623XXSP,2013-02-12 10:28:00,
2013-02-12 04:30:00,52.3,40.5,30.02,NNE,22,4.0,9.0,64,0.02,,,0.02,WUHU21623XXSP,2013-02-12 10:30:00,
2013-02-12 04:32:00,52.3,40.5,30.02,NE,42,4.0,9.0,64,0.02,,,0.02,WUHU21623XXSP,2013-02-12 10:32:00,
2013-02-12 04:33:00,52.3,40.5,30.02,NE,43,3.0,9.0,64,0.02,,,0.02,WUHU21623XXSP,2013-02-12 10:33:00,
2013-02-12 04:36:00,52.3,40.5,30.02,NNE,22,3.0,5.0,64,0.02,,,0.02,WUHU21623XXSP,2013-02-12 10:36:00,
2013-02-12 04:37:00,52.3,40.5,30.03,NE,52,4.0,5.0,64,0.02,,,0.02,WUHU21623XXSP,2013-02-12 10:37:00,
2013-02-12 04:38:00,52.5,40.6,30.03,NE,53,4.0,5.0,64,0.02,,,0.02,WUHU21623XXSP,2013-02-12 10:38:00,
2013-02-12 04:41:00,52.5,41.1,30.03,ENE,67,5.0,5.0,65,0.02,,,0.02,WUHU21623XXSP,2013-02-12 10:41:00,
2013-02-12 04:42:00,52.3,40.9,30.03,ENE,75,3.0,5.0,65,0.02,,,0.02,WUHU21623XXSP,2013-02-12 10:42:00,
2013-02-12 04:43:00,52.5,41.1,30.03,East,81,2.0,5.0,65,0.02,,,0.02,WUHU21623XXSP,2013-02-12 10:43:00,
2013-02-12 04:46:00,52.5,41.1,30.02,ENE,78,3.0,6.0,65,0.02,,,0.02,WUHU21623XXSP,2013-02-12 10:46:00,
2013-02-12 04:47:00,52.5,41.1,30.02,ENE,61,4.0,6.0,65,0.02,,,0.02,WUHU21623XXSP,2013-02-12 10:47:00,
2013-02-12 04:48:00,52.5,41.1,30.02,ENE,69,4.0,6.0,65,0.02,,,0.02,WUHU21623XXSP,2013-02-12 10:48:00,
2013-02-12 04:51:00,52.5,41.1,30.02,East,90,7.0,8.0,65,0.02,,,0.02,WUHU21623XXSP,2013-02-12 10:51:00,
2013-02-12 04:52:00,52.5,41.1,30.01,ENE,64,5.0,8.0,65,0.00,,,0.02,WUHU21623XXSP,2013-02-12 10:52:00,
2013-02-12 04:53:00,52.5,41.1,30.00,ENE,67,10.0,10.0,65,0.00,,,0.02,WUHU21623XXSP,2013-02-12 10:53:00,
2013-02-12 04:56:00,52.5,41.1,30.00,ENE,67,5.0,10.0,65,0.00,,,0.02,WUHU21623XXSP,2013-02-12 10:56:00,
2013-02-12 04:58:00,52.5,41.1,30.00,East,90,6.0,10.0,65,0.00,,,0.02,WUHU21623XXSP,2013-02-12 10:58:00,
2013-02-12 04:59:00,52.5,41.1,30.01,ENE,67,5.0,10.0,65,0.00,,,0.02,WUHU21623XXSP,2013-02-12 10:59:00,
2013-02-12 05:01:00,52.5,41.1,30.01,SE,135,4.0,10.0,65,0.00,,,0.02,WUHU21623XXSP,2013-02-12 11:01:00,
2013-02-12 05:03:00,52.5,41.1,30.01,ENE,67,5.0,9.0,65,0.00,,,0.02,WUHU21623XXSP,2013-02-12 11:03:00,
2013-02-12 05:04:00,52.5,41.1,30.01,ENE,67,5.0,8.0,65,0.00,,,0.02,WUHU21623XXSP,2013-02-12 11:04:00,
2013-02-12 05:06:00,52.5,41.1,30.01,East,86,6.0,10.0,65,0.00,,,0.02,WUHU21623XXSP,2013-02-12 11:06:00,
2013-02-12 05:08:00,52.5,41.1,30.01,East,90,8.0,10.0,65,0.00,,,0.02,WUHU21623XXSP,2013-02-12 11:08:00,
2013-02-12 05:09:00,52.5,41.1,30.01,NE,45,10.0,10.0,65,0.00,,,0.02,WUHU21623XXSP,2013-02-12 11:09:00,
2013-02-12 05:11:00,52.5,41.1,29.99,East,90,10.0,12.0,65,0.00,,,0.02,WUHU21623XXSP,2013-02-12 11:11:00,
2013-02-12 05:14:00,52.5,41.1,29.99,NE,54,6.0,12.0,65,0.00,,,0.02,WUHU21623XXSP,2013-02-12 11:14:00,
2013-02-12 05:15:00,52.5,41.1,29.99,ENE,66,6.0,12.0,65,0.00,,,0.02,WUHU21623XXSP,2013-02-12 11:15:00,
2013-02-12 05:16:00,52.5,41.1,29.99,NE,52,5.0,12.0,65,0.00,,,0.02,WUHU21623XXSP,2013-02-12 11:16:00,
2013-02-12 05:19:00,52.3,41.3,29.99,NNE,22,9.0,12.0,66,0.00,,,0.02,WUHU21623XXSP,2013-02-12 11:19:00,
2013-02-12 05:20:00,52.3,41.3,29.99,NNE,22,9.0,12.0,66,0.00,,,0.02,WUHU21623XXSP,2013-02-12 11:20:00,
2013-02-12 05:21:00,52.2,41.3,29.98,NE,34,8.0,12.0,66,0.00,,,0.02,WUHU21623XXSP,2013-02-12 11:21:00,
2013-02-12 05:24:00,52.0,40.9,29.98,NNE,22,9.0,12.0,66,0.00,,,0.02,WUHU21623XXSP,2013-02-12 11:24:00,
2013-02-12 05:25:00,52.0,41.4,29.98,North,0,8.0,12.0,67,0.00,,,0.02,WUHU21623XXSP,2013-02-12 11:25:00,
2013-02-12 05:26:00,52.0,41.4,29.97,NNE,22,9.0,12.0,67,0.00,,,0.02,WUHU21623XXSP,2013-02-12 11:26:00,
2013-02-12 05:29:00,51.6,41.0,29.97,NNW,337,7.0,12.0,67,0.00,,,0.02,WUHU21623XXSP,2013-02-12 11:29:00,
2013-02-12 05:30:00,51.6,41.0,29.97,North,2,7.0,12.0,67,0.00,,,0.02,WUHU21623XXSP,2013-02-12 11:30:00,
2013-02-12 05:31:00,51.4,41.3,29.97,North,4,7.0,10.0,68,0.00,,,0.02,WUHU21623XXSP,2013-02-12 11:31:00,
2013-02-12 05:34:00,51.1,40.9,29.97,ENE,67,9.0,10.0,68,0.00,,,0.02,WUHU21623XXSP,2013-02-12 11:34:00,
2013-02-12 05:35:00,51.1,41.0,29.97,NNE,24,7.0,10.0,68,0.00,,,0.02,WUHU21623XXSP,2013-02-12 11:35:00,
2013-02-12 05:36:00,51.1,40.9,29.97,NE,45,9.0,13.0,68,0.00,,,0.02,WUHU21623XXSP,2013-02-12 11:36:00,
2013-02-12 05:39:00,50.9,40.7,29.98,NE,53,7.0,13.0,68,0.00,,,0.02,WUHU21623XXSP,2013-02-12 11:39:00,
2013-02-12 05:40:00,50.9,40.7,29.98,NE,45,8.0,13.0,68,0.00,,,0.02,WUHU21623XXSP,2013-02-12 11:40:00,
2013-02-12 05:41:00,50.9,40.7,29.98,NE,45,8.0,13.0,68,0.00,,,0.02,WUHU21623XXSP,2013-02-12 11:41:00,
2013-02-12 05:42:00,50.9,40.7,29.98,NNE,22,10.0,13.0,68,0.00,,,0.02,WUHU21623XXSP,2013-02-12 11:42:00,
2013-02-12 05:44:00,50.9,40.7,29.99,ENE,76,5.0,13.0,68,0.00,,,0.02,WUHU21623XXSP,2013-02-12 11:44:00,
2013-02-12 05:45:00,50.9,40.7,29.99,NE,45,4.0,13.0,68,0.00,,,0.02,WUHU21623XXSP,2013-02-12 11:45:00,
2013-02-12 05:46:00,50.9,40.7,29.99,NE,45,8.0,11.0,68,0.00,,,0.02,WUHU21623XXSP,2013-02-12 11:46:00,
2013-02-12 05:47:00,50.9,40.7,29.99,NE,45,8.0,11.0,68,0.00,,,0.02,WUHU21623XXSP,2013-02-12 11:47:00,
2013-02-12 05:49:00,51.1,40.9,29.98,SE,135,10.0,11.0,68,0.00,,,0.02,WUHU21623XXSP,2013-02-12 11:49:00,
2013-02-12 05:50:00,51.1,40.9,29.97,East,91,9.0,11.0,68,0.00,,,0.02,WUHU21623XXSP,2013-02-12 11:50:00,
2013-02-12 05:52:00,51.1,40.9,29.96,ENE,68,8.0,11.0,68,0.00,,,0.02,WUHU21623XXSP,2013-02-12 11:52:00,
2013-02-12 05:55:00,51.3,41.1,29.96,ENE,70,7.0,12.0,68,0.00,,,0.02,WUHU21623XXSP,2013-02-12 11:55:00,
2013-02-12 05:57:00,51.1,40.9,29.97,NE,52,4.0,12.0,68,0.00,,,0.02,WUHU21623XXSP,2013-02-12 11:57:00,
2013-02-12 06:00:00,51.1,40.9,29.99,ESE,112,3.0,12.0,68,0.02,,,0.04,WUHU21623XXSP,2013-02-12 12:00:00,
2013-02-12 06:02:00,51.1,40.9,29.99,East,91,5.0,12.0,68,0.02,,,0.04,WUHU21623XXSP,2013-02-12 12:02:00,
2013-02-12 06:05:00,51.3,41.1,29.99,ENE,67,6.0,8.0,68,0.02,,,0.04,WUHU21623XXSP,2013-02-12 12:05:00,
2013-02-12 06:07:00,51.4,41.3,30.00,East,79,4.0,8.0,68,0.02,,,0.04,WUHU21623XXSP,2013-02-12 12:07:00,
2013-02-12 06:10:00,51.4,41.3,30.00,ENE,67,4.0,8.0,68,0.02,,,0.04,WUHU21623XXSP,2013-02-12 12:10:00,
2013-02-12 06:12:00,51.4,41.3,29.98,ENE,67,10.0,10.0,68,0.04,,,0.06,WUHU21623XXSP,2013-02-12 12:12:00,
2013-02-12 06:13:00,51.4,41.3,29.98,ENE,67,10.0,10.0,68,0.04,,,0.06,WUHU21623XXSP,2013-02-12 12:13:00,
2013-02-12 06:15:00,51.4,41.3,29.99,East,80,7.0,11.0,68,0.06,,,0.06,WUHU21623XXSP,2013-02-12 12:15:00,
2013-02-12 06:16:00,51.4,41.3,29.99,East,80,7.0,11.0,68,0.06,,,0.06,WUHU21623XXSP,2013-02-12 12:16:00,
2013-02-12 06:18:00,51.6,41.4,29.99,ESE,112,9.0,11.0,68,0.06,,,0.08,WUHU21623XXSP,2013-02-12 12:18:00,
2013-02-12 06:21:00,51.6,41.4,29.97,ENE,69,6.0,11.0,68,0.08,,,0.08,WUHU21623XXSP,2013-02-12 12:21:00,
2013-02-12 06:23:00,51.6,41.4,29.98,ENE,69,4.0,11.0,68,0.08,,,0.10,WUHU21623XXSP,2013-02-12 12:23:00,
2013-02-12 06:26:00,51.6,41.4,30.00,NNW,337,1.0,10.0,68,0.08,,,0.10,WUHU21623XXSP,2013-02-12 12:26:00,
2013-02-12 06:28:00,51.6,41.4,29.99,North,0,2.0,10.0,68,0.08,,,0.10,WUHU21623XXSP,2013-02-12 12:28:00,
2013-02-12 06:31:00,51.4,41.7,29.98,NE,45,7.0,7.0,69,0.10,,,0.12,WUHU21623XXSP,2013-02-12 12:31:00,
2013-02-12 06:33:00,51.4,41.7,29.98,NE,53,5.0,9.0,69,0.10,,,0.12,WUHU21623XXSP,2013-02-12 12:33:00,
2013-02-12 06:34:00,51.4,41.7,29.99,NE,45,6.0,9.0,69,0.10,,,0.12,WUHU21623XXSP,2013-02-12 12:34:00,
2013-02-12 06:36:00,51.4,41.7,29.99,North,10,3.0,9.0,69,0.10,,,0.12,WUHU21623XXSP,2013-02-12 12:36:00,
2013-02-12 06:38:00,51.4,41.7,30.00,NNE,22,0.0,9.0,69,0.10,,,0.12,WUHU21623XXSP,2013-02-12 12:38:00,
2013-02-12 06:39:00,51.4,41.7,30.00,NE,45,0.0,9.0,69,0.10,,,0.12,WUHU21623XXSP,2013-02-12 12:39:00,
2013-02-12 06:41:00,51.4,41.7,29.99,NE,45,4.0,9.0,69,0.10,,,0.12,WUHU21623XXSP,2013-02-12 12:41:00,
2013-02-12 06:43:00,51.4,41.7,29.98,NNE,33,4.0,6.0,69,0.10,,,0.12,WUHU21623XXSP,2013-02-12 12:43:00,
2013-02-12 06:44:00,51.4,41.7,29.99,NE,41,3.0,5.0,69,0.10,,,0.12,WUHU21623XXSP,2013-02-12 12:44:00,
2013-02-12 06:46:00,51.4,41.7,29.99,ENE,67,5.0,6.0,69,0.10,,,0.12,WUHU21623XXSP,2013-02-12 12:46:00,
2013-02-12 06:49:00,51.4,41.7,29.99,East,101,5.0,6.0,69,0.10,,,0.12,WUHU21623XXSP,2013-02-12 12:49:00,
2013-02-12 06:50:00,51.6,41.8,29.99,ENE,67,7.0,10.0,69,0.12,,,0.14,WUHU21623XXSP,2013-02-12 12:50:00,
2013-02-12 06:51:00,51.6,41.8,29.98,ESE,112,12.0,12.0,69,0.12,,,0.14,WUHU21623XXSP,2013-02-12 12:51:00,
2013-02-12 06:52:00,51.6,41.8,29.98,East,90,12.0,12.0,69,0.12,,,0.14,WUHU21623XXSP,2013-02-12 12:52:00,
2013-02-12 06:54:00,51.6,41.8,29.97,East,97,12.0,16.0,69,0.12,,,0.14,WUHU21623XXSP,2013-02-12 12:54:00,
2013-02-12 06:55:00,51.6,41.8,29.95,East,90,18.0,18.0,69,0.12,,,0.14,WUHU21623XXSP,2013-02-12 12:55:00,
2013-02-12 06:57:00,51.6,41.8,29.94,East,85,10.0,18.0,69,0.10,,,0.14,WUHU21623XXSP,2013-02-12 12:57:00,
2013-02-12 06:59:00,51.6,41.8,29.97,East,89,5.0,18.0,69,0.12,,,0.16,WUHU21623XXSP,2013-02-12 12:59:00,
2013-02-12 07:00:00,51.6,41.8,29.98,ESE,112,5.0,18.0,69,0.12,,,0.16,WUHU21623XXSP,2013-02-12 13:00:00,
2013-02-12 07:02:00,51.6,41.8,29.98,ENE,67,8.0,18.0,69,0.12,,,0.16,WUHU21623XXSP,2013-02-12 13:02:00,
2013-02-12 07:04:00,51.6,41.8,29.98,ENE,58,4.0,18.0,69,0.12,,,0.16,WUHU21623XXSP,2013-02-12 13:04:00,
2013-02-12 07:05:00,51.6,41.8,29.99,NE,45,2.0,12.0,69,0.12,,,0.16,WUHU21623XXSP,2013-02-12 13:05:00,
2013-02-12 07:07:00,51.6,41.8,29.99,NE,45,4.0,12.0,69,0.14,,,0.18,WUHU21623XXSP,2013-02-12 13:07:00,
2013-02-12 07:08:00,51.6,41.8,29.99,NE,45,5.0,9.0,69,0.12,,,0.18,WUHU21623XXSP,2013-02-12 13:08:00,
2013-02-12 07:09:00,51.6,41.8,29.99,East,90,7.0,9.0,69,0.12,,,0.18,WUHU21623XXSP,2013-02-12 13:09:00,
2013-02-12 07:10:00,51.6,41.8,29.99,ENE,66,5.0,9.0,69,0.12,,,0.18,WUHU21623XXSP,2013-02-12 13:10:00,
2013-02-12 07:12:00,51.6,41.8,29.98,ENE,67,7.0,9.0,69,0.10,,,0.18,WUHU21623XXSP,2013-02-12 13:12:00,
2013-02-12 07:13:00,51.6,41.8,29.98,ENE,67,6.0,9.0,69,0.12,,,0.21,WUHU21623XXSP,2013-02-12 13:13:00,
2013-02-12 07:14:00,51.6,41.8,29.98,ESE,112,6.0,9.0,69,0.12,,,0.21,WUHU21623XXSP,2013-02-12 13:14:00,
2013-02-12 07:15:00,51.6,41.8,29.98,East,91,5.0,9.0,69,0.12,,,0.21,WUHU21623XXSP,2013-02-12 13:15:00,
2013-02-12 07:17:00,51.6,41.8,29.98,East,82,7.0,9.0,69,0.12,,,0.21,WUHU21623XXSP,2013-02-12 13:17:00,
2013-02-12 07:18:00,51.6,41.8,29.98,East,83,6.0,9.0,69,0.12,,,0.21,WUHU21623XXSP,2013-02-12 13:18:00,
2013-02-12 07:19:00,51.6,41.8,29.98,East,85,5.0,9.0,69,0.12,,,0.21,WUHU21623XXSP,2013-02-12 13:19:00,
2013-02-12 07:20:00,51.6,41.8,29.97,ENE,72,7.0,10.0,69,0.10,,,0.21,WUHU21623XXSP,2013-02-12 13:20:00,
2013-02-12 07:22:00,51.6,41.8,29.98,ENE,67,9.0,10.0,69,0.10,,,0.21,WUHU21623XXSP,2013-02-12 13:22:00,
2013-02-12 07:24:00,51.6,41.8,29.97,ENE,68,6.0,10.0,69,0.10,,,0.21,WUHU21623XXSP,2013-02-12 13:24:00,
2013-02-12 07:26:00,51.6,41.8,29.98,ENE,77,5.0,10.0,69,0.10,,,0.21,WUHU21623XXSP,2013-02-12 13:26:00,
2013-02-12 07:27:00,51.6,41.8,29.98,NE,45,7.0,12.0,69,0.10,,,0.21,WUHU21623XXSP,2013-02-12 13:27:00,
2013-02-12 07:29:00,51.6,41.8,29.98,ENE,67,6.0,12.0,69,0.08,,,0.21,WUHU21623XXSP,2013-02-12 13:29:00,
2013-02-12 07:31:00,51.6,41.8,29.98,ENE,67,10.0,12.0,69,0.08,,,0.21,WUHU21623XXSP,2013-02-12 13:31:00,
2013-02-12 07:32:00,51.6,42.3,29.98,East,80,7.0,12.0,70,0.08,,,0.21,WUHU21623XXSP,2013-02-12 13:32:00,
2013-02-12 07:34:00,51.6,42.3,29.98,ESE,112,6.0,12.0,70,0.08,,,0.21,WUHU21623XXSP,2013-02-12 13:34:00,
2013-02-12 07:36:00,51.6,42.3,29.99,East,83,4.0,12.0,70,0.08,,,0.21,WUHU21623XXSP,2013-02-12 13:36:00,
2013-02-12 07:38:00,51.6,41.8,29.98,ENE,67,8.0,11.0,69,0.08,,,0.21,WUHU21623XXSP,2013-02-12 13:38:00,
2013-02-12 07:39:00,51.6,41.8,29.98,East,84,7.0,11.0,69,0.08,,,0.21,WUHU21623XXSP,2013-02-12 13:39:00,
2013-02-12 07:41:00,51.6,42.3,29.98,ENE,67,8.0,11.0,70,0.08,,,0.21,WUHU21623XXSP,2013-02-12 13:41:00,
2013-02-12 07:43:00,51.6,42.3,29.98,East,87,8.0,11.0,70,0.08,,,0.21,WUHU21623XXSP,2013-02-12 13:43:00,
2013-02-12 07:44:00,51.8,42.4,29.97,East,90,9.0,11.0,70,0.08,,,0.21,WUHU21623XXSP,2013-02-12 13:44:00,
2013-02-12 07:45:00,51.8,42.4,29.97,ENE,77,7.0,11.0,70,0.08,,,0.21,WUHU21623XXSP,2013-02-12 13:45:00,
2013-02-12 07:46:00,51.8,42.4,29.97,ENE,67,10.0,12.0,70,0.08,,,0.21,WUHU21623XXSP,2013-02-12 13:46:00,
2013-02-12 07:48:00,51.8,42.4,29.96,ENE,74,8.0,12.0,70,0.06,,,0.21,WUHU21623XXSP,2013-02-12 13:48:00,
2013-02-12 07:49:00,51.8,42.4,29.96,ENE,67,10.0,12.0,70,0.06,,,0.21,WUHU21623XXSP,2013-02-12 13:49:00,
2013-02-12 07:50:00,51.8,42.4,29.96,East,86,8.0,12.0,70,0.06,,,0.21,WUHU21623XXSP,2013-02-12 13:50:00,
2013-02-12 07:51:00,51.8,42.4,29.95,ENE,67,11.0,12.0,70,0.06,,,0.21,WUHU21623XXSP,2013-02-12 13:51:00,
2013-02-12 07:53:00,52.0,42.6,29.96,East,90,9.0,12.0,70,0.06,,,0.21,WUHU21623XXSP,2013-02-12 13:53:00,
2013-02-12 07:55:00,52.0,42.6,29.96,East,90,13.0,13.0,70,0.06,,,0.21,WUHU21623XXSP,2013-02-12 13:55:00,
2013-02-12 07:56:00,52.0,42.6,29.96,East,96,10.0,13.0,70,0.04,,,0.21,WUHU21623XXSP,2013-02-12 13:56:00,
2013-02-12 07:58:00,52.0,42.6,29.96,ENE,71,10.0,13.0,70,0.04,,,0.21,WUHU21623XXSP,2013-02-12 13:58:00,
2013-02-12 08:00:00,52.0,42.6,29.96,East,80,9.0,13.0,70,0.04,,,0.21,WUHU21623XXSP,2013-02-12 14:00:00,
2013-02-12 08:01:00,52.0,42.6,29.96,ESE,112,8.0,13.0,70,0.04,,,0.21,WUHU21623XXSP,2013-02-12 14:01:00,
2013-02-12 08:03:00,52.2,42.8,29.96,NE,45,9.0,13.0,70,0.04,,,0.21,WUHU21623XXSP,2013-02-12 14:03:00,
2013-02-12 08:05:00,52.2,42.8,29.96,East,88,8.0,12.0,70,0.02,,,0.21,WUHU21623XXSP,2013-02-12 14:05:00,
2013-02-12 08:06:00,52.2,42.8,29.96,East,79,5.0,12.0,70,0.02,,,0.21,WUHU21623XXSP,2013-02-12 14:06:00,
2013-02-12 08:09:00,52.2,42.8,29.96,East,85,6.0,12.0,70,0.02,,,0.21,WUHU21623XXSP,2013-02-12 14:09:00,
2013-02-12 08:10:00,52.2,42.8,29.96,ESE,112,7.0,12.0,70,0.02,,,0.21,WUHU21623XXSP,2013-02-12 14:10:00,
2013-02-12 08:12:00,52.2,42.8,29.96,East,91,7.0,12.0,70,0.00,,,0.21,WUHU21623XXSP,2013-02-12 14:12:00,
2013-02-12 08:14:00,52.2,42.8,29.96,East,84,5.0,12.0,70,0.00,,,0.21,WUHU21623XXSP,2013-02-12 14:14:00,
2013-02-12 08:15:00,52.2,42.8,29.96,ENE,67,7.0,12.0,70,0.00,,,0.21,WUHU21623XXSP,2013-02-12 14:15:00,
2013-02-12 08:17:00,52.2,42.8,29.96,East,84,5.0,10.0,70,0.00,,,0.21,WUHU21623XXSP,2013-02-12 14:17:00,
2013-02-12 08:19:00,52.2,42.8,29.96,East,85,4.0,10.0,70,0.00,,,0.21,WUHU21623XXSP,2013-02-12 14:19:00,
2013-02-12 08:20:00,52.3,42.9,29.96,East,90,11.0,11.0,70,0.00,,,0.21,WUHU21623XXSP,2013-02-12 14:20:00,
2013-02-12 08:22:00,52.3,42.9,29.96,East,86,8.0,11.0,70,0.00,,,0.21,WUHU21623XXSP,2013-02-12 14:22:00,
2013-02-12 08:25:00,52.3,42.9,29.96,ENE,67,5.0,11.0,70,0.00,,,0.21,WUHU21623XXSP,2013-02-12 14:25:00,
2013-02-12 08:27:00,52.3,42.9,29.97,East,90,7.0,11.0,70,0.00,,,0.21,WUHU21623XXSP,2013-02-12 14:27:00,
2013-02-12 08:30:00,52.3,42.9,29.97,East,82,7.0,11.0,70,0.00,,,0.21,WUHU21623XXSP,2013-02-12 14:30:00,
2013-02-12 08:31:00,52.3,42.9,29.97,ENE,76,6.0,11.0,70,0.00,,,0.21,WUHU21623XXSP,2013-02-12 14:31:00,
2013-02-12 08:32:00,52.3,42.9,29.97,ENE,67,7.0,11.0,70,0.00,,,0.21,WUHU21623XXSP,2013-02-12 14:32:00,
2013-02-12 08:35:00,52.3,42.9,29.97,East,85,5.0,11.0,70,0.00,,,0.21,WUHU21623XXSP,2013-02-12 14:35:00,
2013-02-12 08:36:00,52.3,42.9,29.97,ENE,72,6.0,11.0,70,0.00,,,0.21,WUHU21623XXSP,2013-02-12 14:36:00,
2013-02-12 08:37:00,52.3,42.9,29.97,NE,51,5.0,10.0,70,0.00,,,0.21,WUHU21623XXSP,2013-02-12 14:37:00,
2013-02-12 08:40:00,52.3,42.9,29.98,NE,42,5.0,10.0,70,0.00,,,0.21,WUHU21623XXSP,2013-02-12 14:40:00,
2013-02-12 08:41:00,52.3,42.9,29.98,ENE,67,6.0,10.0,70,0.00,,,0.21,WUHU21623XXSP,2013-02-12 14:41:00,
2013-02-12 08:43:00,52.3,42.9,29.98,NNE,32,6.0,10.0,70,0.00,,,0.21,WUHU21623XXSP,2013-02-12 14:43:00,
2013-02-12 08:45:00,52.3,42.9,29.98,NE,45,5.0,9.0,70,0.00,,,0.21,WUHU21623XXSP,2013-02-12 14:45:00,
2013-02-12 08:46:00,52.3,42.9,29.98,NNE,22,5.0,9.0,70,0.00,,,0.21,WUHU21623XXSP,2013-02-12 14:46:00,
2013-02-12 08:48:00,52.3,42.9,29.98,NE,53,5.0,9.0,70,0.00,,,0.21,WUHU21623XXSP,2013-02-12 14:48:00,
2013-02-12 08:50:00,52.3,42.9,29.98,NNE,22,7.0,9.0,70,0.00,,,0.21,WUHU21623XXSP,2013-02-12 14:50:00,
2013-02-12 08:51:00,52.3,42.9,29.97,NE,36,5.0,9.0,70,0.00,,,0.21,WUHU21623XXSP,2013-02-12 14:51:00,
2013-02-12 08:53:00,52.3,42.9,29.97,NE,45,8.0,9.0,70,0.00,,,0.21,WUHU21623XXSP,2013-02-12 14:53:00,
2013-02-12 08:55:00,52.3,42.9,29.97,NE,45,7.0,9.0,70,0.00,,,0.21,WUHU21623XXSP,2013-02-12 14:55:00,
2013-02-12 08:56:00,52.3,42.9,29.97,ENE,70,5.0,9.0,70,0.00,,,0.21,WUHU21623XXSP,2013-02-12 14:56:00,
2013-02-12 08:58:00,52.3,42.9,29.97,NE,52,5.0,9.0,70,0.00,,,0.21,WUHU21623XXSP,2013-02-12 14:58:00,
2013-02-12 09:00:00,52.3,42.9,29.97,NE,47,3.0,9.0,70,0.00,,,0.21,WUHU21623XXSP,2013-02-12 15:00:00,
2013-02-12 09:01:00,52.3,42.9,29.97,NE,48,4.0,9.0,70,0.00,,,0.21,WUHU21623XXSP,2013-02-12 15:01:00,
2013-02-12 09:03:00,52.3,42.9,29.97,NE,44,5.0,9.0,70,0.00,,,0.21,WUHU21623XXSP,2013-02-12 15:03:00,
2013-02-12 09:05:00,52.2,42.8,29.97,NE,45,4.0,9.0,70,0.00,,,0.21,WUHU21623XXSP,2013-02-12 15:05:00,
2013-02-12 09:06:00,52.2,42.8,29.97,NE,45,6.0,9.0,70,0.00,,,0.21,WUHU21623XXSP,2013-02-12 15:06:00,
2013-02-12 09:08:00,52.2,42.8,29.97,ENE,69,6.0,10.0,70,0.00,,,0.21,WUHU21623XXSP,2013-02-12 15:08:00,
2013-02-12 09:10:00,52.2,42.8,29.99,NNW,345,3.0,10.0,70,0.00,,,0.21,WUHU21623XXSP,2013-02-12 15:10:00,
2013-02-12 09:11:00,52.2,42.8,30.00,WNW,294,3.0,10.0,70,0.00,,,0.21,WUHU21623XXSP,2013-02-12 15:11:00,
2013-02-12 09:13:00,52.0,42.9,30.01,WNW,289,6.0,10.0,71,0.00,,,0.21,WUHU21623XXSP,2013-02-12 15:13:00,
2013-02-12 09:15:00,51.8,42.8,30.01,WNW,300,4.0,10.0,71,0.00,,,0.21,WUHU21623XXSP,2013-02-12 15:15:00,
2013-02-12 09:16:00,51.6,42.6,30.02,WNW,292,5.0,10.0,71,0.00,,,0.21,WUHU21623XXSP,2013-02-12 15:16:00,
2013-02-12 09:17:00,51.6,42.6,30.02,WNW,294,4.0,10.0,71,0.00,,,0.21,WUHU21623XXSP,2013-02-12 15:17:00,
2013-02-12 09:18:00,51.4,42.4,30.01,WNW,292,2.0,8.0,71,0.02,,,0.23,WUHU21623XXSP,2013-02-12 15:18:00,
2013-02-12 09:21:00,51.4,42.4,30.00,NE,45,2.0,8.0,71,0.02,,,0.23,WUHU21623XXSP,2013-02-12 15:21:00,
2013-02-12 09:22:00,51.3,42.2,30.00,NE,39,2.0,7.0,71,0.02,,,0.23,WUHU21623XXSP,2013-02-12 15:22:00,
2013-02-12 09:24:00,51.3,42.2,30.00,North,0,3.0,6.0,71,0.02,,,0.23,WUHU21623XXSP,2013-02-12 15:24:00,
2013-02-12 09:26:00,51.3,42.6,30.00,North,0,3.0,5.0,72,0.04,,,0.25,WUHU21623XXSP,2013-02-12 15:26:00,
2013-02-12 09:27:00,51.4,42.8,30.00,NNW,340,3.0,4.0,72,0.04,,,0.25,WUHU21623XXSP,2013-02-12 15:27:00,
2013-02-12 09:29:00,51.4,42.8,30.00,NNW,333,2.0,4.0,72,0.04,,,0.25,WUHU21623XXSP,2013-02-12 15:29:00,
2013-02-12 09:31:00,51.4,42.8,30.00,NW,315,3.0,4.0,72,0.04,,,0.25,WUHU21623XXSP,2013-02-12 15:31:00,
2013-02-12 09:32:00,51.4,42.8,30.00,NNW,343,3.0,4.0,72,0.04,,,0.25,WUHU21623XXSP,2013-02-12 15:32:00,
2013-02-12 09:33:00,51.3,42.6,30.00,North,0,4.0,4.0,72,0.04,,,0.25,WUHU21623XXSP,2013-02-12 15:33:00,
2013-02-12 09:34:00,51.3,42.6,30.00,NNW,333,2.0,4.0,72,0.04,,,0.25,WUHU21623XXSP,2013-02-12 15:34:00,
2013-02-12 09:36:00,51.3,42.6,30.00,WNW,294,3.0,5.0,72,0.04,,,0.25,WUHU21623XXSP,2013-02-12 15:36:00,
2013-02-12 09:37:00,51.4,42.8,30.00,WNW,292,3.0,5.0,72,0.04,,,0.25,WUHU21623XXSP,2013-02-12 15:37:00,
2013-02-12 09:38:00,51.3,42.6,30.00,NW,315,3.0,5.0,72,0.04,,,0.25,WUHU21623XXSP,2013-02-12 15:38:00,
2013-02-12 09:39:00,51.1,42.7,30.00,NW,320,3.0,5.0,73,0.04,,,0.25,WUHU21623XXSP,2013-02-12 15:39:00,
2013-02-12 09:41:00,51.1,42.7,30.00,NNW,335,3.0,5.0,73,0.04,,,0.25,WUHU21623XXSP,2013-02-12 15:41:00,
2013-02-12 09:42:00,51.1,42.7,30.00,NNE,22,2.0,5.0,73,0.04,,,0.25,WUHU21623XXSP,2013-02-12 15:42:00,
2013-02-12 09:43:00,50.9,42.6,30.01,North,5,2.0,5.0,73,0.04,,,0.25,WUHU21623XXSP,2013-02-12 15:43:00,
2013-02-12 09:44:00,50.9,42.6,30.01,NW,315,2.0,5.0,73,0.04,,,0.25,WUHU21623XXSP,2013-02-12 15:44:00,
2013-02-12 09:46:00,50.9,42.6,30.01,WNW,291,2.0,5.0,73,0.04,,,0.25,WUHU21623XXSP,2013-02-12 15:46:00,
2013-02-12 09:47:00,50.9,42.6,30.01,NNW,337,3.0,5.0,73,0.04,,,0.25,WUHU21623XXSP,2013-02-12 15:47:00,
2013-02-12 09:48:00,50.7,42.4,30.01,NNW,328,4.0,6.0,73,0.04,,,0.25,WUHU21623XXSP,2013-02-12 15:48:00,
2013-02-12 09:49:00,50.7,42.4,30.01,NNW,330,3.0,6.0,73,0.04,,,0.25,WUHU21623XXSP,2013-02-12 15:49:00,
2013-02-12 09:52:00,50.7,42.4,30.01,North,351,2.0,6.0,73,0.04,,,0.25,WUHU21623XXSP,2013-02-12 15:52:00,
2013-02-12 09:54:00,50.7,42.4,30.01,North,352,2.0,6.0,73,0.04,,,0.25,WUHU21623XXSP,2013-02-12 15:54:00,
2013-02-12 09:55:00,50.7,42.4,30.02,North,352,3.0,6.0,73,0.04,,,0.25,WUHU21623XXSP,2013-02-12 15:55:00,
2013-02-12 09:57:00,50.7,42.4,30.02,North,353,2.0,6.0,73,0.04,,,0.25,WUHU21623XXSP,2013-02-12 15:57:00,
2013-02-12 09:59:00,50.7,42.4,30.01,NNE,22,2.0,4.0,73,0.04,,,0.25,WUHU21623XXSP,2013-02-12 15:59:00,
2013-02-12 10:00:00,50.7,42.4,30.02,North,356,2.0,4.0,73,0.04,,,0.25,WUHU21623XXSP,2013-02-12 16:00:00,
2013-02-12 10:02:00,50.9,42.6,30.02,NNW,329,2.0,4.0,73,0.04,,,0.25,WUHU21623XXSP,2013-02-12 16:02:00,
2013-02-12 10:04:00,50.9,42.6,30.02,NW,318,2.0,4.0,73,0.04,,,0.25,WUHU21623XXSP,2013-02-12 16:04:00,
2013-02-12 10:05:00,50.9,42.6,30.02,WNW,292,2.0,3.0,73,0.04,,,0.25,WUHU21623XXSP,2013-02-12 16:05:00,
2013-02-12 10:07:00,50.9,42.6,30.02,North,349,2.0,3.0,73,0.06,,,0.27,WUHU21623XXSP,2013-02-12 16:07:00,
2013-02-12 10:09:00,50.9,42.6,30.02,North,8,3.0,4.0,73,0.06,,,0.27,WUHU21623XXSP,2013-02-12 16:09:00,
2013-02-12 10:10:00,50.9,42.6,30.02,NNE,27,3.0,4.0,73,0.06,,,0.27,WUHU21623XXSP,2013-02-12 16:10:00,
2013-02-12 10:12:00,50.9,42.6,30.02,NNE,24,2.0,4.0,73,0.06,,,0.27,WUHU21623XXSP,2013-02-12 16:12:00,
2013-02-12 10:14:00,50.9,42.6,30.02,NNE,14,3.0,5.0,73,0.06,,,0.27,WUHU21623XXSP,2013-02-12 16:14:00,
2013-02-12 10:15:00,50.9,42.6,30.02,North,351,1.0,5.0,73,0.06,,,0.27,WUHU21623XXSP,2013-02-12 16:15:00,
2013-02-12 10:17:00,51.1,42.7,30.02,NNE,22,2.0,5.0,73,0.04,,,0.27,WUHU21623XXSP,2013-02-12 16:17:00,
2013-02-12 10:19:00,51.1,42.7,30.02,NNE,29,2.0,5.0,73,0.04,,,0.27,WUHU21623XXSP,2013-02-12 16:19:00,
2013-02-12 10:20:00,51.3,42.9,30.02,NE,45,4.0,5.0,73,0.04,,,0.27,WUHU21623XXSP,2013-02-12 16:20:00,
2013-02-12 10:22:00,51.3,42.9,30.01,NNE,29,4.0,6.0,73,0.04,,,0.27,WUHU21623XXSP,2013-02-12 16:22:00,
2013-02-12 10:24:00,51.4,43.1,30.01,NNE,30,4.0,6.0,73,0.02,,,0.27,WUHU21623XXSP,2013-02-12 16:24:00,
2013-02-12 10:26:00,51.4,43.1,30.01,NE,45,4.0,6.0,73,0.02,,,0.27,WUHU21623XXSP,2013-02-12 16:26:00,
2013-02-12 10:27:00,51.4,43.1,30.01,NE,45,4.0,6.0,73,0.02,,,0.27,WUHU21623XXSP,2013-02-12 16:27:00,
2013-02-12 10:29:00,51.4,43.1,30.01,NE,51,2.0,6.0,73,0.02,,,0.27,WUHU21623XXSP,2013-02-12 16:29:00,
2013-02-12 10:31:00,51.4,43.1,30.01,ENE,67,3.0,6.0,73,0.02,,,0.27,WUHU21623XXSP,2013-02-12 16:31:00,
2013-02-12 10:32:00,51.4,43.1,30.02,NE,44,3.0,6.0,73,0.02,,,0.27,WUHU21623XXSP,2013-02-12 16:32:00,
2013-02-12 10:33:00,51.4,43.1,30.02,NE,45,4.0,6.0,73,0.02,,,0.27,WUHU21623XXSP,2013-02-12 16:33:00,
2013-02-12 10:34:00,51.6,43.3,30.01,NNE,22,5.0,6.0,73,0.02,,,0.27,WUHU21623XXSP,2013-02-12 16:34:00,
2013-02-12 10:36:00,51.6,43.3,30.02,NE,37,4.0,6.0,73,0.02,,,0.27,WUHU21623XXSP,2013-02-12 16:36:00,
2013-02-12 10:38:00,51.6,43.3,30.02,NE,38,2.0,6.0,73,0.02,,,0.27,WUHU21623XXSP,2013-02-12 16:38:00,
2013-02-12 10:39:00,51.6,43.3,30.02,NNE,24,3.0,6.0,73,0.02,,,0.27,WUHU21623XXSP,2013-02-12 16:39:00,
2013-02-12 10:41:00,51.6,42.9,30.01,NE,37,3.0,6.0,72,0.02,,,0.27,WUHU21623XXSP,2013-02-12 16:41:00,
2013-02-12 10:43:00,51.6,42.9,30.01,NNE,22,2.0,6.0,72,0.02,,,0.27,WUHU21623XXSP,2013-02-12 16:43:00,
2013-02-12 10:44:00,51.6,42.9,30.01,NE,45,3.0,5.0,72,0.02,,,0.27,WUHU21623XXSP,2013-02-12 16:44:00,
2013-02-12 10:46:00,51.6,43.3,30.01,North,0,3.0,5.0,73,0.02,,,0.27,WUHU21623XXSP,2013-02-12 16:46:00,
2013-02-12 10:48:00,51.6,43.3,30.01,NNE,12,3.0,5.0,73,0.02,,,0.27,WUHU21623XXSP,2013-02-12 16:48:00,
2013-02-12 10:50:00,51.6,43.3,30.01,NNE,22,4.0,5.0,73,0.02,,,0.27,WUHU21623XXSP,2013-02-12 16:50:00,
2013-02-12 10:51:00,51.6,43.3,30.01,NNE,26,2.0,5.0,73,0.02,,,0.27,WUHU21623XXSP,2013-02-12 16:51:00,
2013-02-12 10:53:00,51.8,43.5,30.01,NNE,24,3.0,5.0,73,0.02,,,0.27,WUHU21623XXSP,2013-02-12 16:53:00,
2013-02-12 10:55:00,51.8,43.5,30.02,NW,315,1.0,5.0,73,0.02,,,0.27,WUHU21623XXSP,2013-02-12 16:55:00,
2013-02-12 10:56:00,51.8,43.5,30.02,North,353,2.0,5.0,73,0.02,,,0.27,WUHU21623XXSP,2013-02-12 16:56:00,
2013-02-12 10:58:00,51.8,43.5,30.02,NNW,343,2.0,5.0,73,0.02,,,0.27,WUHU21623XXSP,2013-02-12 16:58:00,
2013-02-12 11:00:00,51.6,43.3,30.02,NNE,17,3.0,5.0,73,0.02,,,0.27,WUHU21623XXSP,2013-02-12 17:00:00,
2013-02-12 11:02:00,51.6,43.3,30.01,NNE,22,4.0,5.0,73,0.02,,,0.27,WUHU21623XXSP,2013-02-12 17:02:00,
2013-02-12 11:03:00,51.6,43.3,30.01,NNE,26,3.0,5.0,73,0.02,,,0.27,WUHU21623XXSP,2013-02-12 17:03:00,
2013-02-12 11:04:00,51.6,43.3,30.01,NNE,22,4.0,5.0,73,0.00,,,0.27,WUHU21623XXSP,2013-02-12 17:04:00,
2013-02-12 11:05:00,51.8,43.5,30.01,NNE,22,4.0,5.0,73,0.00,,,0.27,WUHU21623XXSP,2013-02-12 17:05:00,
2013-02-12 11:07:00,51.8,43.5,30.01,NNE,22,4.0,5.0,73,0.00,,,0.27,WUHU21623XXSP,2013-02-12 17:07:00,
2013-02-12 11:08:00,51.8,43.5,30.01,NNE,22,3.0,5.0,73,0.00,,,0.27,WUHU21623XXSP,2013-02-12 17:08:00,
2013-02-12 11:09:00,51.8,43.5,30.01,NE,41,3.0,5.0,73,0.00,,,0.27,WUHU21623XXSP,2013-02-12 17:09:00,
2013-02-12 11:10:00,52.0,43.6,30.00,NE,38,2.0,5.0,73,0.00,,,0.27,WUHU21623XXSP,2013-02-12 17:10:00,
2013-02-12 11:12:00,52.0,43.6,30.00,NNE,22,2.0,5.0,73,0.00,,,0.27,WUHU21623XXSP,2013-02-12 17:12:00,
2013-02-12 11:13:00,52.0,43.6,30.00,North,0,0.0,5.0,73,0.00,,,0.27,WUHU21623XXSP,2013-02-12 17:13:00,
2013-02-12 11:14:00,52.0,43.6,30.00,NNE,22,0.0,5.0,73,0.00,,,0.27,WUHU21623XXSP,2013-02-12 17:14:00,
2013-02-12 11:15:00,52.0,43.6,30.00,NNE,16,2.0,5.0,73,0.00,,,0.27,WUHU21623XXSP,2013-02-12 17:15:00,
2013-02-12 11:17:00,52.0,43.6,30.00,NNE,22,4.0,5.0,73,0.00,,,0.27,WUHU21623XXSP,2013-02-12 17:17:00,
2013-02-12 11:18:00,52.0,43.6,30.00,NE,42,4.0,6.0,73,0.00,,,0.27,WUHU21623XXSP,2013-02-12 17:18:00,
2013-02-12 11:19:00,52.0,43.6,30.00,NE,47,4.0,6.0,73,0.00,,,0.27,WUHU21623XXSP,2013-02-12 17:19:00,
2013-02-12 11:20:00,52.0,43.6,30.00,North,0,5.0,6.0,73,0.00,,,0.27,WUHU21623XXSP,2013-02-12 17:20:00,
2013-02-12 11:22:00,52.2,43.8,30.00,NNE,27,5.0,7.0,73,0.00,,,0.27,WUHU21623XXSP,2013-02-12 17:22:00,
2013-02-12 11:23:00,52.2,43.8,30.00,NNE,14,4.0,7.0,73,0.00,,,0.27,WUHU21623XXSP,2013-02-12 17:23:00,
2013-02-12 11:24:00,52.0,43.6,30.00,NNE,20,3.0,7.0,73,0.00,,,0.27,WUHU21623XXSP,2013-02-12 17:24:00,
2013-02-12 11:25:00,52.2,43.8,30.00,North,0,3.0,7.0,73,0.00,,,0.27,WUHU21623XXSP,2013-02-12 17:25:00,
2013-02-12 11:28:00,52.2,43.8,30.00,NNE,22,5.0,7.0,73,0.00,,,0.27,WUHU21623XXSP,2013-02-12 17:28:00,
2013-02-12 11:29:00,52.2,43.8,30.00,NNE,16,4.0,7.0,73,0.00,,,0.27,WUHU21623XXSP,2013-02-12 17:29:00,
2013-02-12 11:31:00,52.2,43.8,30.00,North,0,4.0,6.0,73,0.00,,,0.27,WUHU21623XXSP,2013-02-12 17:31:00,
2013-02-12 11:33:00,52.0,43.6,30.00,North,0,4.0,5.0,73,0.00,,,0.27,WUHU21623XXSP,2013-02-12 17:33:00,
2013-02-12 11:34:00,52.0,43.6,30.00,NE,45,4.0,5.0,73,0.00,,,0.27,WUHU21623XXSP,2013-02-12 17:34:00,
2013-02-12 11:36:00,52.0,43.6,30.00,NW,315,3.0,5.0,73,0.00,,,0.27,WUHU21623XXSP,2013-02-12 17:36:00,
2013-02-12 11:38:00,51.8,43.5,30.00,North,6,4.0,6.0,73,0.00,,,0.27,WUHU21623XXSP,2013-02-12 17:38:00,
2013-02-12 11:39:00,51.6,43.3,30.00,NNE,22,4.0,6.0,73,0.00,,,0.27,WUHU21623XXSP,2013-02-12 17:39:00,
2013-02-12 11:41:00,51.6,43.3,30.00,NNW,347,3.0,6.0,73,0.00,,,0.27,WUHU21623XXSP,2013-02-12 17:41:00,
2013-02-12 11:43:00,51.6,43.3,30.00,North,9,4.0,9.0,73,0.00,,,0.27,WUHU21623XXSP,2013-02-12 17:43:00,
2013-02-12 11:44:00,51.6,43.3,30.00,NNE,13,5.0,9.0,73,0.00,,,0.27,WUHU21623XXSP,2013-02-12 17:44:00,
2013-02-12 11:46:00,51.4,43.1,30.00,NE,45,4.0,9.0,73,0.00,,,0.27,WUHU21623XXSP,2013-02-12 17:46:00,
2013-02-12 11:49:00,51.6,43.3,29.99,NNE,29,4.0,9.0,73,0.00,,,0.27,WUHU21623XXSP,2013-02-12 17:49:00,
2013-02-12 11:51:00,51.6,43.3,29.99,NNE,20,6.0,9.0,73,0.00,,,0.27,WUHU21623XXSP,2013-02-12 17:51:00,
2013-02-12 11:54:00,51.6,43.3,29.99,NNE,30,3.0,8.0,73,0.00,,,0.27,WUHU21623XXSP,2013-02-12 17:54:00,
2013-02-12 11:56:00,51.6,43.6,29.99,NE,45,6.0,8.0,74,0.00,,,0.27,WUHU21623XXSP,2013-02-12 17:56:00,
2013-02-12 11:59:00,51.6,43.3,29.99,NNE,32,6.0,9.0,73,0.00,,,0.27,WUHU21623XXSP,2013-02-12 17:59:00,
2013-02-12 12:00:00,51.6,43.3,29.99,NNE,23,6.0,9.0,73,0.00,,,0.27,WUHU21623XXSP,2013-02-12 18:00:00,
2013-02-12 12:01:00,51.6,43.6,29.99,NNW,337,5.0,9.0,74,0.00,,,0.27,WUHU21623XXSP,2013-02-12 18:01:00,
2013-02-12 12:04:00,51.6,43.6,29.99,NNE,21,4.0,9.0,74,0.00,,,0.27,WUHU21623XXSP,2013-02-12 18:04:00,
2013-02-12 12:05:00,51.6,43.6,29.99,North,0,5.0,9.0,74,0.00,,,0.27,WUHU21623XXSP,2013-02-12 18:05:00,
2013-02-12 12:07:00,51.6,43.3,29.99,NNE,15,4.0,9.0,73,0.00,,,0.27,WUHU21623XXSP,2013-02-12 18:07:00,
2013-02-12 12:09:00,51.6,43.3,29.99,NW,315,4.0,7.0,73,0.00,,,0.27,WUHU21623XXSP,2013-02-12 18:09:00,
2013-02-12 12:10:00,51.6,43.6,29.99,NW,315,3.0,7.0,74,0.00,,,0.27,WUHU21623XXSP,2013-02-12 18:10:00,
2013-02-12 12:12:00,51.6,43.6,29.99,NNW,327,4.0,7.0,74,0.00,,,0.27,WUHU21623XXSP,2013-02-12 18:12:00,
2013-02-12 12:14:00,51.6,43.6,29.99,NNW,337,4.0,7.0,74,0.00,,,0.27,WUHU21623XXSP,2013-02-12 18:14:00,
2013-02-12 12:15:00,51.6,43.6,29.99,North,0,5.0,7.0,74,0.00,,,0.27,WUHU21623XXSP,2013-02-12 18:15:00,
2013-02-12 12:17:00,51.4,43.4,29.99,North,0,4.0,7.0,74,0.00,,,0.27,WUHU21623XXSP,2013-02-12 18:17:00,
2013-02-12 12:19:00,51.4,43.4,29.99,NNE,13,3.0,7.0,74,0.00,,,0.27,WUHU21623XXSP,2013-02-12 18:19:00,
2013-02-12 12:20:00,51.4,43.4,29.99,NNE,14,3.0,7.0,74,0.00,,,0.27,WUHU21623XXSP,2013-02-12 18:20:00,
2013-02-12 12:21:00,51.4,43.4,29.99,NNE,13,3.0,7.0,74,0.00,,,0.27,WUHU21623XXSP,2013-02-12 18:21:00,
2013-02-12 12:22:00,51.4,43.4,29.99,NNE,25,5.0,9.0,74,0.00,,,0.27,WUHU21623XXSP,2013-02-12 18:22:00,
2013-02-12 12:25:00,51.4,43.4,29.99,NNE,32,5.0,9.0,74,0.00,,,0.27,WUHU21623XXSP,2013-02-12 18:25:00,
2013-02-12 12:26:00,51.4,43.4,29.99,NNE,24,3.0,9.0,74,0.00,,,0.27,WUHU21623XXSP,2013-02-12 18:26:00,
2013-02-12 12:28:00,51.4,43.4,29.98,NNE,22,3.0,9.0,74,0.00,,,0.27,WUHU21623XXSP,2013-02-12 18:28:00,
2013-02-12 12:30:00,51.4,43.4,29.98,NNE,22,3.0,9.0,74,0.00,,,0.27,WUHU21623XXSP,2013-02-12 18:30:00,
2013-02-12 12:31:00,51.4,43.4,29.99,NNE,32,3.0,9.0,74,0.00,,,0.27,WUHU21623XXSP,2013-02-12 18:31:00,
2013-02-12 12:33:00,51.4,43.1,29.99,North,5,2.0,7.0,73,0.00,,,0.27,WUHU21623XXSP,2013-02-12 18:33:00,
2013-02-12 12:35:00,51.6,43.3,29.99,North,0,2.0,6.0,73,0.00,,,0.27,WUHU21623XXSP,2013-02-12 18:35:00,
2013-02-12 12:36:00,51.6,43.3,29.99,North,6,2.0,6.0,73,0.00,,,0.27,WUHU21623XXSP,2013-02-12 18:36:00,
2013-02-12 12:38:00,51.6,43.3,29.98,NE,38,3.0,6.0,73,0.00,,,0.27,WUHU21623XXSP,2013-02-12 18:38:00,
2013-02-12 12:40:00,51.6,43.3,29.98,ENE,59,2.0,4.0,73,0.00,,,0.27,WUHU21623XXSP,2013-02-12 18:40:00,
2013-02-12 12:41:00,51.8,43.5,29.98,NNE,29,3.0,4.0,73,0.00,,,0.27,WUHU21623XXSP,2013-02-12 18:41:00,
2013-02-12 12:43:00,51.8,43.5,29.98,NE,42,4.0,6.0,73,0.00,,,0.27,WUHU21623XXSP,2013-02-12 18:43:00,
2013-02-12 12:45:00,52.0,43.6,29.97,North,0,5.0,7.0,73,0.00,,,0.27,WUHU21623XXSP,2013-02-12 18:45:00,
2013-02-12 12:46:00,52.0,43.6,29.97,NNE,22,5.0,7.0,73,0.00,,,0.27,WUHU21623XXSP,2013-02-12 18:46:00,
2013-02-12 12:49:00,52.0,43.6,29.97,NNE,19,4.0,7.0,73,0.00,,,0.27,WUHU21623XXSP,2013-02-12 18:49:00,
2013-02-12 12:50:00,52.0,43.6,29.97,NNE,24,2.0,7.0,73,0.00,,,0.27,WUHU21623XXSP,2013-02-12 18:50:00,
2013-02-12 12:51:00,52.0,43.6,29.97,NNE,27,3.0,7.0,73,0.00,,,0.27,WUHU21623XXSP,2013-02-12 18:51:00,
2013-02-12 12:54:00,52.2,43.8,29.98,North,354,2.0,7.0,73,0.00,,,0.27,WUHU21623XXSP,2013-02-12 18:54:00,
2013-02-12 12:55:00,52.2,43.8,29.98,North,0,3.0,7.0,73,0.00,,,0.27,WUHU21623XXSP,2013-02-12 18:55:00,
2013-02-12 12:56:00,52.2,43.8,29.97,NW,315,4.0,7.0,73,0.00,,,0.27,WUHU21623XXSP,2013-02-12 18:56:00,
2013-02-12 12:59:00,52.2,43.8,29.98,North,0,4.0,5.0,73,0.00,,,0.27,WUHU21623XXSP,2013-02-12 18:59:00,
2013-02-12 13:00:00,52.2,43.8,29.97,North,354,3.0,5.0,73,0.00,,,0.27,WUHU21623XXSP,2013-02-12 19:00:00,
2013-02-12 13:01:00,52.0,43.6,29.97,NNW,337,3.0,5.0,73,0.00,,,0.27,WUHU21623XXSP,2013-02-12 19:01:00,
2013-02-12 13:04:00,52.0,43.6,29.97,NNE,22,1.0,5.0,73,0.00,,,0.27,WUHU21623XXSP,2013-02-12 19:04:00,
2013-02-12 13:05:00,51.8,43.5,29.97,North,0,5.0,5.0,73,0.00,,,0.27,WUHU21623XXSP,2013-02-12 19:05:00,
2013-02-12 13:06:00,51.8,43.5,29.97,North,4,4.0,7.0,73,0.00,,,0.27,WUHU21623XXSP,2013-02-12 19:06:00,
2013-02-12 13:07:00,51.8,43.5,29.97,NNW,337,4.0,7.0,73,0.00,,,0.27,WUHU21623XXSP,2013-02-12 19:07:00,
2013-02-12 13:09:00,51.6,43.3,29.97,NW,315,3.0,7.0,73,0.00,,,0.27,WUHU21623XXSP,2013-02-12 19:09:00,
2013-02-12 13:11:00,51.6,43.3,29.97,North,0,3.0,7.0,73,0.00,,,0.27,WUHU21623XXSP,2013-02-12 19:11:00,
2013-02-12 13:12:00,51.6,43.3,29.97,NNE,22,2.0,7.0,73,0.00,,,0.27,WUHU21623XXSP,2013-02-12 19:12:00,
2013-02-12 13:14:00,51.6,43.3,29.97,North,6,2.0,7.0,73,0.00,,,0.27,WUHU21623XXSP,2013-02-12 19:14:00,
2013-02-12 13:16:00,51.6,43.3,29.96,NW,323,2.0,7.0,73,0.00,,,0.27,WUHU21623XXSP,2013-02-12 19:16:00,
2013-02-12 13:17:00,51.6,43.3,29.97,NNW,337,2.0,6.0,73,0.00,,,0.27,WUHU21623XXSP,2013-02-12 19:17:00,
2013-02-12 13:19:00,51.6,43.3,29.96,NW,315,1.0,4.0,73,0.00,,,0.27,WUHU21623XXSP,2013-02-12 19:19:00,
2013-02-12 13:21:00,51.6,43.3,29.97,North,0,4.0,4.0,73,0.00,,,0.27,WUHU21623XXSP,2013-02-12 19:21:00,
2013-02-12 13:22:00,51.6,43.3,29.97,North,358,3.0,4.0,73,0.00,,,0.27,WUHU21623XXSP,2013-02-12 19:22:00,
2013-02-12 13:24:00,51.6,43.3,29.96,NNW,337,4.0,4.0,73,0.00,,,0.27,WUHU21623XXSP,2013-02-12 19:24:00,
2013-02-12 13:26:00,51.6,43.3,29.96,NNW,329,3.0,4.0,73,0.00,,,0.27,WUHU21623XXSP,2013-02-12 19:26:00,
2013-02-12 13:27:00,51.6,43.3,29.96,NNW,337,0.0,4.0,73,0.00,,,0.27,WUHU21623XXSP,2013-02-12 19:27:00,
2013-02-12 13:29:00,51.6,43.3,29.96,North,0,3.0,4.0,73,0.00,,,0.27,WUHU21623XXSP,2013-02-12 19:29:00,
2013-02-12 13:31:00,51.6,43.3,29.96,North,349,2.0,4.0,73,0.00,,,0.27,WUHU21623XXSP,2013-02-12 19:31:00,
2013-02-12 13:32:00,51.6,43.3,29.96,North,357,2.0,4.0,73,0.00,,,0.27,WUHU21623XXSP,2013-02-12 19:32:00,
2013-02-12 13:35:00,51.6,43.3,29.96,North,0,2.0,4.0,73,0.00,,,0.27,WUHU21623XXSP,2013-02-12 19:35:00,
2013-02-12 13:37:00,51.6,43.3,29.96,North,10,2.0,4.0,73,0.00,,,0.27,WUHU21623XXSP,2013-02-12 19:37:00,
2013-02-12 13:40:00,51.6,43.3,29.96,NNE,22,3.0,5.0,73,0.00,,,0.27,WUHU21623XXSP,2013-02-12 19:40:00,
2013-02-12 13:42:00,51.6,43.3,29.96,North,3,3.0,5.0,73,0.00,,,0.27,WUHU21623XXSP,2013-02-12 19:42:00,
2013-02-12 13:43:00,51.6,43.3,29.96,NNE,22,5.0,5.0,73,0.00,,,0.27,WUHU21623XXSP,2013-02-12 19:43:00,
2013-02-12 13:45:00,51.6,43.3,29.95,North,0,3.0,5.0,73,0.00,,,0.27,WUHU21623XXSP,2013-02-12 19:45:00,
2013-02-12 13:47:00,51.8,43.5,29.95,North,355,3.0,5.0,73,0.00,,,0.27,WUHU21623XXSP,2013-02-12 19:47:00,
2013-02-12 13:48:00,51.6,43.3,29.95,NW,315,4.0,5.0,73,0.00,,,0.27,WUHU21623XXSP,2013-02-12 19:48:00,
2013-02-12 13:50:00,51.8,43.5,29.95,North,0,2.0,5.0,73,0.00,,,0.27,WUHU21623XXSP,2013-02-12 19:50:00,
2013-02-12 13:52:00,51.6,43.3,29.95,ENE,67,2.0,5.0,73,0.00,,,0.27,WUHU21623XXSP,2013-02-12 19:52:00,
2013-02-12 13:53:00,51.8,43.5,29.95,NNE,21,3.0,4.0,73,0.00,,,0.27,WUHU21623XXSP,2013-02-12 19:53:00,
2013-02-12 13:55:00,51.8,43.5,29.95,NE,37,3.0,4.0,73,0.00,,,0.27,WUHU21623XXSP,2013-02-12 19:55:00,
2013-02-12 13:57:00,52.0,43.6,29.95,North,352,2.0,4.0,73,0.00,,,0.27,WUHU21623XXSP,2013-02-12 19:57:00,
2013-02-12 13:58:00,52.0,43.6,29.95,North,0,2.0,4.0,73,0.00,,,0.27,WUHU21623XXSP,2013-02-12 19:58:00,
2013-02-12 14:01:00,52.2,43.8,29.95,NE,45,0.0,4.0,73,0.00,,,0.27,WUHU21623XXSP,2013-02-12 20:01:00,
2013-02-12 14:02:00,52.2,43.8,29.95,NE,45,0.0,4.0,73,0.00,,,0.27,WUHU21623XXSP,2013-02-12 20:02:00,
2013-02-12 14:03:00,52.2,43.8,29.95,ENE,67,2.0,4.0,73,0.00,,,0.27,WUHU21623XXSP,2013-02-12 20:03:00,
2013-02-12 14:06:00,52.3,44.0,29.95,North,357,2.0,3.0,73,0.00,,,0.27,WUHU21623XXSP,2013-02-12 20:06:00,
2013-02-12 14:07:00,52.3,44.0,29.95,NNE,22,0.0,3.0,73,0.00,,,0.27,WUHU21623XXSP,2013-02-12 20:07:00,
2013-02-12 14:08:00,52.3,44.0,29.95,NNE,13,2.0,3.0,73,0.00,,,0.27,WUHU21623XXSP,2013-02-12 20:08:00,
2013-02-12 14:11:00,52.3,44.0,29.95,NE,45,2.0,3.0,73,0.00,,,0.27,WUHU21623XXSP,2013-02-12 20:11:00,
2013-02-12 14:12:00,52.3,44.0,29.95,NE,45,2.0,3.0,73,0.00,,,0.27,WUHU21623XXSP,2013-02-12 20:12:00,
2013-02-12 14:13:00,52.3,44.0,29.95,NE,34,2.0,3.0,73,0.00,,,0.27,WUHU21623XXSP,2013-02-12 20:13:00,
2013-02-12 14:16:00,52.5,44.1,29.95,NNE,22,2.0,3.0,73,0.00,,,0.27,WUHU21623XXSP,2013-02-12 20:16:00,
2013-02-12 14:17:00,52.5,43.8,29.95,North,0,2.0,3.0,72,0.00,,,0.27,WUHU21623XXSP,2013-02-12 20:17:00,
2013-02-12 14:18:00,52.5,43.8,29.95,North,0,2.0,3.0,72,0.00,,,0.27,WUHU21623XXSP,2013-02-12 20:18:00,
2013-02-12 14:21:00,52.7,44.0,29.95,WNW,292,0.0,3.0,72,0.00,,,0.27,WUHU21623XXSP,2013-02-12 20:21:00,
2013-02-12 14:22:00,52.7,44.0,29.94,NW,315,0.0,3.0,72,0.00,,,0.27,WUHU21623XXSP,2013-02-12 20:22:00,
2013-02-12 14:23:00,52.7,44.0,29.94,NW,315,0.0,2.0,72,0.00,,,0.27,WUHU21623XXSP,2013-02-12 20:23:00,
2013-02-12 14:26:00,52.5,43.8,29.94,NNW,337,1.0,2.0,72,0.00,,,0.27,WUHU21623XXSP,2013-02-12 20:26:00,
2013-02-12 14:28:00,52.5,43.8,29.94,NNW,337,1.0,2.0,72,0.00,,,0.27,WUHU21623XXSP,2013-02-12 20:28:00,
2013-02-12 14:31:00,52.5,43.8,29.94,NNE,20,2.0,4.0,72,0.00,,,0.27,WUHU21623XXSP,2013-02-12 20:31:00,
2013-02-12 14:33:00,52.5,43.8,29.94,NNE,25,2.0,4.0,72,0.00,,,0.27,WUHU21623XXSP,2013-02-12 20:33:00,
2013-02-12 14:34:00,52.5,43.8,29.94,NE,54,3.0,4.0,72,0.00,,,0.27,WUHU21623XXSP,2013-02-12 20:34:00,
2013-02-12 14:37:00,52.5,43.8,29.94,NE,45,2.0,4.0,72,0.00,,,0.27,WUHU21623XXSP,2013-02-12 20:37:00,
2013-02-12 14:38:00,52.7,44.0,29.94,ENE,67,3.0,4.0,72,0.00,,,0.27,WUHU21623XXSP,2013-02-12 20:38:00,
2013-02-12 14:39:00,52.5,43.8,29.94,ENE,61,3.0,4.0,72,0.00,,,0.27,WUHU21623XXSP,2013-02-12 20:39:00,
2013-02-12 14:42:00,52.7,44.0,29.94,NNE,13,2.0,4.0,72,0.00,,,0.27,WUHU21623XXSP,2013-02-12 20:42:00,
2013-02-12 14:43:00,52.7,44.0,29.94,NNE,17,2.0,5.0,72,0.00,,,0.27,WUHU21623XXSP,2013-02-12 20:43:00,
2013-02-12 14:44:00,52.7,44.0,29.94,NNE,30,4.0,5.0,72,0.00,,,0.27,WUHU21623XXSP,2013-02-12 20:44:00,
2013-02-12 14:47:00,52.7,44.0,29.94,NE,37,2.0,5.0,72,0.00,,,0.27,WUHU21623XXSP,2013-02-12 20:47:00,
2013-02-12 14:48:00,52.9,44.1,29.94,NNE,22,3.0,5.0,72,0.00,,,0.27,WUHU21623XXSP,2013-02-12 20:48:00,
2013-02-12 14:49:00,52.9,44.1,29.94,NNE,31,3.0,5.0,72,0.00,,,0.27,WUHU21623XXSP,2013-02-12 20:49:00,
2013-02-12 14:52:00,52.9,44.1,29.93,ENE,61,2.0,5.0,72,0.00,,,0.27,WUHU21623XXSP,2013-02-12 20:52:00,
2013-02-12 14:53:00,52.9,44.1,29.93,North,0,2.0,5.0,72,0.00,,,0.27,WUHU21623XXSP,2013-02-12 20:53:00,
2013-02-12 14:54:00,52.9,44.1,29.93,North,0,2.0,4.0,72,0.00,,,0.27,WUHU21623XXSP,2013-02-12 20:54:00,
2013-02-12 14:57:00,52.9,44.1,29.93,NNE,26,4.0,6.0,72,0.00,,,0.27,WUHU21623XXSP,2013-02-12 20:57:00,
2013-02-12 14:58:00,52.9,44.1,29.94,NNE,20,2.0,6.0,72,0.00,,,0.27,WUHU21623XXSP,2013-02-12 20:58:00,
2013-02-12 14:59:00,52.9,44.1,29.93,NNE,26,2.0,6.0,72,0.00,,,0.27,WUHU21623XXSP,2013-02-12 20:59:00,
2013-02-12 15:02:00,52.9,44.1,29.93,ENE,57,2.0,6.0,72,0.00,,,0.27,WUHU21623XXSP,2013-02-12 21:02:00,
2013-02-12 15:03:00,52.9,44.1,29.93,NW,315,0.0,6.0,72,0.00,,,0.27,WUHU21623XXSP,2013-02-12 21:03:00,
2013-02-12 15:05:00,52.9,44.1,29.94,WNW,292,0.0,6.0,72,0.00,,,0.27,WUHU21623XXSP,2013-02-12 21:05:00,
2013-02-12 15:07:00,52.9,44.1,29.94,West,270,0.0,4.0,72,0.00,,,0.27,WUHU21623XXSP,2013-02-12 21:07:00,
2013-02-12 15:09:00,52.9,44.1,29.94,NW,315,0.0,4.0,72,0.00,,,0.27,WUHU21623XXSP,2013-02-12 21:09:00,
2013-02-12 15:10:00,52.9,44.1,29.94,NNW,337,0.0,3.0,72,0.00,,,0.27,WUHU21623XXSP,2013-02-12 21:10:00,
2013-02-12 15:12:00,52.9,44.1,29.94,NNW,337,2.0,2.0,72,0.00,,,0.27,WUHU21623XXSP,2013-02-12 21:12:00,
2013-02-12 15:14:00,52.9,44.1,29.94,NNW,337,0.0,2.0,72,0.00,,,0.27,WUHU21623XXSP,2013-02-12 21:14:00,
2013-02-12 15:15:00,52.9,44.1,29.94,NW,315,0.0,2.0,72,0.00,,,0.27,WUHU21623XXSP,2013-02-12 21:15:00,
2013-02-12 15:17:00,52.9,44.1,29.94,NNW,337,0.0,2.0,72,0.00,,,0.27,WUHU21623XXSP,2013-02-12 21:17:00,
2013-02-12 15:19:00,52.9,44.1,29.94,WNW,292,0.0,2.0,72,0.00,,,0.27,WUHU21623XXSP,2013-02-12 21:19:00,
2013-02-12 15:20:00,52.9,44.1,29.94,WNW,292,2.0,2.0,72,0.00,,,0.27,WUHU21623XXSP,2013-02-12 21:20:00,
2013-02-12 15:22:00,52.9,44.1,29.93,NNW,337,0.0,2.0,72,0.00,,,0.27,WUHU21623XXSP,2013-02-12 21:22:00,
2013-02-12 15:24:00,52.9,44.1,29.93,NW,315,2.0,2.0,72,0.00,,,0.27,WUHU21623XXSP,2013-02-12 21:24:00,
2013-02-12 15:25:00,52.9,43.8,29.93,NW,315,2.0,2.0,71,0.00,,,0.27,WUHU21623XXSP,2013-02-12 21:25:00,
2013-02-12 15:27:00,52.9,43.8,29.93,North,0,3.0,3.0,71,0.00,,,0.27,WUHU21623XXSP,2013-02-12 21:27:00,
2013-02-12 15:29:00,53.1,43.9,29.93,North,0,2.0,3.0,71,0.00,,,0.27,WUHU21623XXSP,2013-02-12 21:29:00,
2013-02-12 15:30:00,52.9,43.8,29.94,NNE,22,2.0,3.0,71,0.00,,,0.27,WUHU21623XXSP,2013-02-12 21:30:00,
2013-02-12 15:33:00,53.1,43.9,29.93,ENE,67,2.0,5.0,71,0.00,,,0.27,WUHU21623XXSP,2013-02-12 21:33:00,
2013-02-12 15:34:00,53.2,44.1,29.93,NNE,23,3.0,5.0,71,0.00,,,0.27,WUHU21623XXSP,2013-02-12 21:34:00,
2013-02-12 15:35:00,53.2,44.1,29.93,North,0,3.0,5.0,71,0.00,,,0.27,WUHU21623XXSP,2013-02-12 21:35:00,
2013-02-12 15:38:00,53.2,44.1,29.93,NNE,25,4.0,7.0,71,0.00,,,0.27,WUHU21623XXSP,2013-02-12 21:38:00,
2013-02-12 15:39:00,53.2,44.1,29.93,NNE,17,2.0,7.0,71,0.00,,,0.27,WUHU21623XXSP,2013-02-12 21:39:00,
2013-02-12 15:40:00,53.2,44.1,29.93,North,3,2.0,7.0,71,0.00,,,0.27,WUHU21623XXSP,2013-02-12 21:40:00,
2013-02-12 15:43:00,52.9,43.8,29.94,WNW,295,3.0,7.0,71,0.00,,,0.27,WUHU21623XXSP,2013-02-12 21:43:00,
2013-02-12 15:44:00,52.9,43.8,29.94,WNW,292,2.0,7.0,71,0.00,,,0.27,WUHU21623XXSP,2013-02-12 21:44:00,
2013-02-12 15:46:00,52.9,43.8,29.94,NW,306,2.0,7.0,71,0.00,,,0.27,WUHU21623XXSP,2013-02-12 21:46:00,
2013-02-12 15:48:00,52.7,44.0,29.94,WNW,292,2.0,5.0,72,0.00,,,0.27,WUHU21623XXSP,2013-02-12 21:48:00,
2013-02-12 15:49:00,52.7,44.0,29.94,NW,315,3.0,5.0,72,0.00,,,0.27,WUHU21623XXSP,2013-02-12 21:49:00,
2013-02-12 15:51:00,52.5,43.8,29.94,WNW,294,3.0,5.0,72,0.00,,,0.27,WUHU21623XXSP,2013-02-12 21:51:00,
2013-02-12 15:53:00,52.3,43.6,29.95,WNW,292,5.0,5.0,72,0.00,,,0.27,WUHU21623XXSP,2013-02-12 21:53:00,
2013-02-12 15:54:00,52.3,43.6,29.95,NW,307,4.0,5.0,72,0.00,,,0.27,WUHU21623XXSP,2013-02-12 21:54:00,
2013-02-12 15:56:00,52.3,43.6,29.95,WNW,298,3.0,5.0,72,0.00,,,0.27,WUHU21623XXSP,2013-02-12 21:56:00,
2013-02-12 15:58:00,52.2,43.4,29.94,NW,305,2.0,5.0,72,0.00,,,0.27,WUHU21623XXSP,2013-02-12 21:58:00,
2013-02-12 15:59:00,52.0,43.3,29.94,NW,315,4.0,5.0,72,0.00,,,0.27,WUHU21623XXSP,2013-02-12 21:59:00,
2013-02-12 16:01:00,52.0,43.6,29.95,WNW,292,5.0,5.0,73,0.00,,,0.27,WUHU21623XXSP,2013-02-12 22:01:00,
2013-02-12 16:02:00,52.0,43.6,29.95,WNW,298,4.0,5.0,73,0.00,,,0.27,WUHU21623XXSP,2013-02-12 22:02:00,
2013-02-12 16:03:00,51.8,43.5,29.95,WNW,297,3.0,5.0,73,0.00,,,0.27,WUHU21623XXSP,2013-02-12 22:03:00,
2013-02-12 16:04:00,51.6,43.3,29.95,WNW,292,2.0,5.0,73,0.00,,,0.27,WUHU21623XXSP,2013-02-12 22:04:00,
2013-02-12 16:06:00,51.6,43.3,29.95,NW,310,3.0,5.0,73,0.00,,,0.27,WUHU21623XXSP,2013-02-12 22:06:00,
2013-02-12 16:07:00,51.6,43.3,29.94,WNW,292,4.0,6.0,73,0.00,,,0.27,WUHU21623XXSP,2013-02-12 22:07:00,
2013-02-12 16:08:00,51.6,43.3,29.95,WNW,292,3.0,6.0,73,0.00,,,0.27,WUHU21623XXSP,2013-02-12 22:08:00,
2013-02-12 16:09:00,51.6,43.3,29.95,WNW,292,4.0,6.0,73,0.00,,,0.27,WUHU21623XXSP,2013-02-12 22:09:00,
2013-02-12 16:12:00,51.4,43.1,29.95,WNW,301,3.0,6.0,73,0.00,,,0.27,WUHU21623XXSP,2013-02-12 22:12:00,
2013-02-12 16:13:00,51.4,43.4,29.95,WNW,294,3.0,6.0,74,0.00,,,0.27,WUHU21623XXSP,2013-02-12 22:13:00,
2013-02-12 16:14:00,51.4,43.4,29.95,WNW,292,3.0,6.0,74,0.00,,,0.27,WUHU21623XXSP,2013-02-12 22:14:00,
2013-02-12 16:17:00,51.3,43.3,29.95,WNW,293,4.0,6.0,74,0.00,,,0.27,WUHU21623XXSP,2013-02-12 22:17:00,
2013-02-12 16:18:00,51.3,43.3,29.95,WNW,295,4.0,6.0,74,0.00,,,0.27,WUHU21623XXSP,2013-02-12 22:18:00,
2013-02-12 16:20:00,51.3,43.3,29.95,WNW,300,2.0,6.0,74,0.00,,,0.27,WUHU21623XXSP,2013-02-12 22:20:00,
2013-02-12 16:22:00,51.1,43.1,29.95,WNW,292,5.0,6.0,74,0.00,,,0.27,WUHU21623XXSP,2013-02-12 22:22:00,
2013-02-12 16:23:00,51.3,43.6,29.95,WNW,292,5.0,6.0,75,0.00,,,0.27,WUHU21623XXSP,2013-02-12 22:23:00,
2013-02-12 16:25:00,51.1,43.4,29.95,NW,306,4.0,6.0,75,0.00,,,0.27,WUHU21623XXSP,2013-02-12 22:25:00,
2013-02-12 16:27:00,51.1,43.4,29.95,WNW,291,2.0,5.0,75,0.00,,,0.27,WUHU21623XXSP,2013-02-12 22:27:00,
2013-02-12 16:28:00,50.9,42.9,29.95,WNW,298,3.0,5.0,74,0.00,,,0.27,WUHU21623XXSP,2013-02-12 22:28:00,
2013-02-12 16:30:00,50.9,42.9,29.95,WNW,293,3.0,5.0,74,0.00,,,0.27,WUHU21623XXSP,2013-02-12 22:30:00,
2013-02-12 16:32:00,50.9,42.9,29.95,WNW,292,4.0,5.0,74,0.00,,,0.27,WUHU21623XXSP,2013-02-12 22:32:00,
2013-02-12 16:33:00,50.9,42.9,29.95,NW,315,3.0,4.0,74,0.00,,,0.27,WUHU21623XXSP,2013-02-12 22:33:00,
2013-02-12 16:35:00,50.9,42.9,29.95,WNW,285,3.0,4.0,74,0.00,,,0.27,WUHU21623XXSP,2013-02-12 22:35:00,
2013-02-12 16:37:00,50.9,43.3,29.95,WNW,302,3.0,5.0,75,0.00,,,0.27,WUHU21623XXSP,2013-02-12 22:37:00,
2013-02-12 16:38:00,50.9,43.3,29.95,WNW,301,3.0,5.0,75,0.00,,,0.27,WUHU21623XXSP,2013-02-12 22:38:00,
2013-02-12 16:40:00,50.9,43.3,29.95,WNW,300,2.0,5.0,75,0.00,,,0.27,WUHU21623XXSP,2013-02-12 22:40:00,
2013-02-12 16:42:00,50.9,43.3,29.96,WNW,303,3.0,5.0,75,0.00,,,0.27,WUHU21623XXSP,2013-02-12 22:42:00,
2013-02-12 16:43:00,50.9,43.3,29.96,WNW,303,2.0,5.0,75,0.00,,,0.27,WUHU21623XXSP,2013-02-12 22:43:00,
2013-02-12 16:44:00,50.9,43.3,29.96,NW,305,2.0,5.0,75,0.00,,,0.27,WUHU21623XXSP,2013-02-12 22:44:00,
2013-02-12 16:45:00,50.9,43.3,29.96,WNW,301,2.0,5.0,75,0.00,,,0.27,WUHU21623XXSP,2013-02-12 22:45:00,
2013-02-12 16:47:00,50.9,43.3,29.96,WNW,292,4.0,4.0,75,0.00,,,0.27,WUHU21623XXSP,2013-02-12 22:47:00,
2013-02-12 16:48:00,50.9,43.3,29.96,WNW,292,4.0,4.0,75,0.00,,,0.27,WUHU21623XXSP,2013-02-12 22:48:00,
2013-02-12 16:49:00,50.9,43.3,29.95,WNW,293,3.0,4.0,75,0.00,,,0.27,WUHU21623XXSP,2013-02-12 22:49:00,
2013-02-12 16:50:00,50.9,43.3,29.96,WNW,289,3.0,4.0,75,0.00,,,0.27,WUHU21623XXSP,2013-02-12 22:50:00,
2013-02-12 16:52:00,50.9,43.6,29.96,WNW,298,3.0,6.0,76,0.00,,,0.27,WUHU21623XXSP,2013-02-12 22:52:00,
2013-02-12 16:53:00,50.9,43.6,29.95,WNW,295,2.0,6.0,76,0.00,,,0.27,WUHU21623XXSP,2013-02-12 22:53:00,
2013-02-12 16:54:00,50.9,43.6,29.95,WNW,292,4.0,6.0,76,0.00,,,0.27,WUHU21623XXSP,2013-02-12 22:54:00,
2013-02-12 16:55:00,50.9,43.6,29.96,West,270,4.0,6.0,76,0.00,,,0.27,WUHU21623XXSP,2013-02-12 22:55:00,
2013-02-12 16:58:00,50.7,43.4,29.96,WNW,287,4.0,6.0,76,0.00,,,0.27,WUHU21623XXSP,2013-02-12 22:58:00,
2013-02-12 16:59:00,50.7,43.4,29.95,WNW,290,4.0,6.0,76,0.00,,,0.27,WUHU21623XXSP,2013-02-12 22:59:00,
2013-02-12 17:00:00,50.7,43.4,29.95,WNW,298,4.0,6.0,76,0.00,,,0.27,WUHU21623XXSP,2013-02-12 23:00:00,
2013-02-12 17:03:00,50.7,43.4,29.95,WNW,285,4.0,6.0,76,0.00,,,0.27,WUHU21623XXSP,2013-02-12 23:03:00,
2013-02-12 17:04:00,50.7,43.4,29.95,WNW,292,4.0,6.0,76,0.00,,,0.27,WUHU21623XXSP,2013-02-12 23:04:00,
2013-02-12 17:05:00,50.7,43.4,29.95,WNW,297,3.0,6.0,76,0.00,,,0.27,WUHU21623XXSP,2013-02-12 23:05:00,
2013-02-12 17:08:00,50.7,43.4,29.95,West,268,3.0,6.0,76,0.00,,,0.27,WUHU21623XXSP,2013-02-12 23:08:00,
2013-02-12 17:09:00,50.7,43.4,29.95,West,270,3.0,6.0,76,0.00,,,0.27,WUHU21623XXSP,2013-02-12 23:09:00,
2013-02-12 17:10:00,50.7,43.4,29.95,West,262,4.0,5.0,76,0.00,,,0.27,WUHU21623XXSP,2013-02-12 23:10:00,
2013-02-12 17:14:00,50.9,43.3,29.95,West,265,3.0,5.0,75,0.00,,,0.27,WUHU21623XXSP,2013-02-12 23:14:00,
2013-02-12 17:15:00,50.7,43.1,29.95,WNW,292,5.0,5.0,75,0.00,,,0.27,WUHU21623XXSP,2013-02-12 23:15:00,
2013-02-12 17:19:00,50.9,43.3,29.96,WNW,292,5.0,5.0,75,0.00,,,0.27,WUHU21623XXSP,2013-02-12 23:19:00,
2013-02-12 17:20:00,50.9,43.3,29.96,West,281,4.0,5.0,75,0.00,,,0.27,WUHU21623XXSP,2013-02-12 23:20:00,
2013-02-12 17:24:00,50.9,43.3,29.96,West,270,5.0,7.0,75,0.00,,,0.27,WUHU21623XXSP,2013-02-12 23:24:00,
2013-02-12 17:25:00,50.9,43.3,29.96,WNW,282,3.0,7.0,75,0.00,,,0.27,WUHU21623XXSP,2013-02-12 23:25:00,
2013-02-12 17:26:00,50.9,43.3,29.96,WNW,292,3.0,7.0,75,0.00,,,0.27,WUHU21623XXSP,2013-02-12 23:26:00,
2013-02-12 17:29:00,50.9,43.3,29.95,WNW,294,4.0,7.0,75,0.00,,,0.27,WUHU21623XXSP,2013-02-12 23:29:00,
2013-02-12 17:30:00,50.9,43.3,29.96,West,270,4.0,7.0,75,0.00,,,0.27,WUHU21623XXSP,2013-02-12 23:30:00,
2013-02-12 17:31:00,50.9,43.3,29.96,WNW,292,7.0,7.0,75,0.00,,,0.27,WUHU21623XXSP,2013-02-12 23:31:00,
2013-02-12 17:34:00,50.7,43.1,29.95,WNW,295,7.0,10.0,75,0.00,,,0.27,WUHU21623XXSP,2013-02-12 23:34:00,
2013-02-12 17:35:00,50.7,43.1,29.96,WNW,292,9.0,10.0,75,0.00,,,0.27,WUHU21623XXSP,2013-02-12 23:35:00,
2013-02-12 17:36:00,50.7,43.1,29.96,WNW,285,7.0,10.0,75,0.00,,,0.27,WUHU21623XXSP,2013-02-12 23:36:00,
2013-02-12 17:39:00,50.7,43.1,29.96,WNW,292,5.0,10.0,75,0.00,,,0.27,WUHU21623XXSP,2013-02-12 23:39:00,
2013-02-12 17:40:00,50.7,43.1,29.95,West,270,5.0,10.0,75,0.00,,,0.27,WUHU21623XXSP,2013-02-12 23:40:00,
2013-02-12 17:41:00,50.7,43.1,29.95,WNW,292,5.0,10.0,75,0.00,,,0.27,WUHU21623XXSP,2013-02-12 23:41:00,
2013-02-12 17:44:00,50.5,42.9,29.96,WNW,295,5.0,10.0,75,0.00,,,0.27,WUHU21623XXSP,2013-02-12 23:44:00,
2013-02-12 17:45:00,50.5,42.9,29.96,WNW,296,5.0,9.0,75,0.00,,,0.27,WUHU21623XXSP,2013-02-12 23:45:00,
2013-02-12 17:46:00,50.4,42.7,29.96,WNW,299,4.0,9.0,75,0.00,,,0.27,WUHU21623XXSP,2013-02-12 23:46:00,
2013-02-12 17:49:00,50.4,42.7,29.96,WNW,295,4.0,9.0,75,0.00,,,0.27,WUHU21623XXSP,2013-02-12 23:49:00,
2013-02-12 17:50:00,50.4,42.7,29.96,NW,315,6.0,9.0,75,0.00,,,0.27,WUHU21623XXSP,2013-02-12 23:50:00,
2013-02-12 17:51:00,50.4,42.7,29.96,WNW,291,4.0,9.0,75,0.00,,,0.27,WUHU21623XXSP,2013-02-12 23:51:00,
2013-02-12 17:54:00,50.4,42.7,29.96,WNW,292,5.0,8.0,75,0.00,,,0.27,WUHU21623XXSP,2013-02-12 23:54:00,
2013-02-12 17:55:00,50.4,42.7,29.96,WNW,292,4.0,8.0,75,0.00,,,0.27,WUHU21623XXSP,2013-02-12 23:55:00,
2013-02-12 17:56:00,50.2,42.5,29.96,WNW,290,4.0,8.0,75,0.00,,,0.27,WUHU21623XXSP,2013-02-12 23:56:00,
2013-02-12 17:59:00,50.2,42.5,29.97,WNW,292,5.0,9.0,75,0.00,,,0.27,WUHU21623XXSP,2013-02-12 23:59:00,
2013-02-12 18:00:00,50.2,42.5,29.97,WNW,294,5.0,9.0,75,0.00,,,0.27,WUHU21623XXSP,2013-02-13 00:00:00,
2013-02-12 18:01:00,50.2,42.5,29.97,WNW,292,5.0,9.0,75,0.00,,,0.27,WUHU21623XXSP,2013-02-13 00:01:00,
2013-02-12 18:04:00,50.2,42.5,29.97,NW,315,6.0,9.0,75,0.00,,,0.27,WUHU21623XXSP,2013-02-13 00:04:00,
2013-02-12 18:05:00,50.2,42.5,29.97,NW,315,6.0,9.0,75,0.00,,,0.27,WUHU21623XXSP,2013-02-13 00:05:00,
2013-02-12 18:06:00,50.2,42.5,29.97,WNW,294,5.0,9.0,75,0.00,,,0.27,WUHU21623XXSP,2013-02-13 00:06:00,
2013-02-12 18:09:00,50.0,42.4,29.97,WNW,284,4.0,7.0,75,0.00,,,0.27,WUHU21623XXSP,2013-02-13 00:09:00,
2013-02-12 18:10:00,50.0,42.4,29.97,WNW,283,4.0,7.0,75,0.00,,,0.27,WUHU21623XXSP,2013-02-13 00:10:00,
2013-02-12 18:11:00,50.0,42.4,29.98,WNW,292,4.0,7.0,75,0.00,,,0.27,WUHU21623XXSP,2013-02-13 00:11:00,
2013-02-12 18:15:00,49.8,42.2,29.98,WNW,291,6.0,9.0,75,0.00,,,0.27,WUHU21623XXSP,2013-02-13 00:15:00,
2013-02-12 18:16:00,49.8,42.2,29.98,WNW,287,5.0,9.0,75,0.00,,,0.27,WUHU21623XXSP,2013-02-13 00:16:00,
2013-02-12 18:20:00,49.8,42.2,29.97,WNW,292,6.0,9.0,75,0.00,,,0.27,WUHU21623XXSP,2013-02-13 00:20:00,
2013-02-12 18:21:00,49.8,42.2,29.97,WNW,292,6.0,9.0,75,0.00,,,0.27,WUHU21623XXSP,2013-02-13 00:21:00,
2013-02-12 18:25:00,49.8,42.2,29.97,WNW,292,5.0,8.0,75,0.00,,,0.27,WUHU21623XXSP,2013-02-13 00:25:00,
2013-02-12 18:26:00,49.8,42.2,29.97,NW,315,6.0,8.0,75,0.00,,,0.27,WUHU21623XXSP,2013-02-13 00:26:00,
2013-02-12 18:30:00,49.8,42.2,29.98,West,270,6.0,7.0,75,0.00,,,0.27,WUHU21623XXSP,2013-02-13 00:30:00,
2013-02-12 18:31:00,49.6,42.0,29.98,WNW,292,5.0,7.0,75,0.00,,,0.27,WUHU21623XXSP,2013-02-13 00:31:00,
2013-02-12 18:35:00,49.6,42.0,29.99,WNW,298,6.0,11.0,75,0.00,,,0.27,WUHU21623XXSP,2013-02-13 00:35:00,
2013-02-12 18:36:00,49.6,42.0,29.99,NW,305,4.0,11.0,75,0.00,,,0.27,WUHU21623XXSP,2013-02-13 00:36:00,
2013-02-12 18:37:00,49.6,42.0,29.99,WNW,292,4.0,11.0,75,0.00,,,0.27,WUHU21623XXSP,2013-02-13 00:37:00,
2013-02-12 18:40:00,49.6,42.0,29.99,WNW,289,6.0,11.0,75,0.00,,,0.27,WUHU21623XXSP,2013-02-13 00:40:00,
2013-02-12 18:41:00,49.6,42.0,29.99,NW,315,8.0,11.0,75,0.00,,,0.27,WUHU21623XXSP,2013-02-13 00:41:00,
2013-02-12 18:42:00,49.6,42.0,29.99,WNW,292,9.0,11.0,75,0.00,,,0.27,WUHU21623XXSP,2013-02-13 00:42:00,
2013-02-12 18:45:00,49.6,42.0,29.99,WNW,292,7.0,9.0,75,0.00,,,0.27,WUHU21623XXSP,2013-02-13 00:45:00,
2013-02-12 18:46:00,49.6,42.0,29.99,WNW,292,5.0,9.0,75,0.00,,,0.27,WUHU21623XXSP,2013-02-13 00:46:00,
2013-02-12 18:47:00,49.6,42.0,29.99,WNW,290,5.0,9.0,75,0.00,,,0.27,WUHU21623XXSP,2013-02-13 00:47:00,
2013-02-12 18:50:00,49.6,42.0,29.99,NW,315,9.0,9.0,75,0.00,,,0.27,WUHU21623XXSP,2013-02-13 00:50:00,
2013-02-12 18:51:00,49.6,42.0,29.99,WNW,292,7.0,9.0,75,0.00,,,0.27,WUHU21623XXSP,2013-02-13 00:51:00,
2013-02-12 18:52:00,49.5,41.8,29.99,WNW,292,6.0,9.0,75,0.00,,,0.27,WUHU21623XXSP,2013-02-13 00:52:00,
2013-02-12 18:55:00,49.3,41.6,29.99,WNW,292,8.0,9.0,75,0.00,,,0.27,WUHU21623XXSP,2013-02-13 00:55:00,
2013-02-12 18:57:00,49.3,41.6,29.99,WNW,295,6.0,9.0,75,0.00,,,0.27,WUHU21623XXSP,2013-02-13 00:57:00,
2013-02-12 19:00:00,49.3,41.6,30.00,WNW,292,7.0,10.0,75,0.00,,,0.27,WUHU21623XXSP,2013-02-13 01:00:00,
2013-02-12 19:02:00,49.3,41.6,30.00,WNW,289,7.0,10.0,75,0.00,,,0.27,WUHU21623XXSP,2013-02-13 01:02:00,
2013-02-12 19:06:00,49.3,41.6,30.00,NW,315,8.0,10.0,75,0.00,,,0.27,WUHU21623XXSP,2013-02-13 01:06:00,
2013-02-12 19:07:00,49.3,41.6,30.00,NW,315,8.0,10.0,75,0.00,,,0.27,WUHU21623XXSP,2013-02-13 01:07:00,
2013-02-12 19:08:00,49.3,41.6,30.00,WNW,290,7.0,10.0,75,0.00,,,0.27,WUHU21623XXSP,2013-02-13 01:08:00,
2013-02-12 19:11:00,49.1,41.5,30.00,WNW,290,6.0,11.0,75,0.00,,,0.27,WUHU21623XXSP,2013-02-13 01:11:00,
2013-02-12 19:12:00,49.1,41.5,30.00,NW,315,8.0,11.0,75,0.00,,,0.27,WUHU21623XXSP,2013-02-13 01:12:00,
2013-02-12 19:13:00,49.1,41.5,30.00,WNW,293,6.0,11.0,75,0.00,,,0.27,WUHU21623XXSP,2013-02-13 01:13:00,
2013-02-12 19:17:00,49.1,41.5,30.00,WNW,290,5.0,11.0,75,0.00,,,0.27,WUHU21623XXSP,2013-02-13 01:17:00,
2013-02-12 19:18:00,49.1,41.5,30.00,WNW,293,5.0,11.0,75,0.00,,,0.27,WUHU21623XXSP,2013-02-13 01:18:00,
2013-02-12 19:22:00,49.1,41.5,30.00,WNW,292,5.0,8.0,75,0.00,,,0.27,WUHU21623XXSP,2013-02-13 01:22:00,
2013-02-12 19:24:00,48.9,41.3,30.00,WNW,295,5.0,9.0,75,0.00,,,0.27,WUHU21623XXSP,2013-02-13 01:24:00,
2013-02-12 19:27:00,48.9,41.3,30.01,WNW,292,5.0,9.0,75,0.00,,,0.27,WUHU21623XXSP,2013-02-13 01:27:00,
2013-02-12 19:29:00,48.9,41.3,30.01,WNW,292,5.0,9.0,75,0.00,,,0.27,WUHU21623XXSP,2013-02-13 01:29:00,
2013-02-12 19:32:00,48.9,41.3,30.01,WNW,292,7.0,9.0,75,0.00,,,0.27,WUHU21623XXSP,2013-02-13 01:32:00,
2013-02-12 19:33:00,48.9,41.3,30.01,WNW,292,9.0,9.0,75,0.00,,,0.27,WUHU21623XXSP,2013-02-13 01:33:00,
2013-02-12 19:34:00,48.7,41.1,30.01,WNW,294,6.0,10.0,75,0.00,,,0.27,WUHU21623XXSP,2013-02-13 01:34:00,
2013-02-12 19:37:00,48.7,41.1,30.02,WNW,296,4.0,10.0,75,0.00,,,0.27,WUHU21623XXSP,2013-02-13 01:37:00,
2013-02-12 19:38:00,48.7,41.1,30.02,WNW,298,4.0,10.0,75,0.00,,,0.27,WUHU21623XXSP,2013-02-13 01:38:00,
2013-02-12 19:39:00,48.7,41.1,30.02,WNW,298,4.0,10.0,75,0.00,,,0.27,WUHU21623XXSP,2013-02-13 01:39:00,
2013-02-12 19:43:00,48.7,41.1,30.01,WNW,289,3.0,10.0,75,0.00,,,0.27,WUHU21623XXSP,2013-02-13 01:43:00,
2013-02-12 19:44:00,48.6,40.9,30.02,WNW,292,7.0,10.0,75,0.00,,,0.27,WUHU21623XXSP,2013-02-13 01:44:00,
2013-02-12 19:48:00,48.6,40.9,30.02,West,270,6.0,8.0,75,0.00,,,0.27,WUHU21623XXSP,2013-02-13 01:48:00,
2013-02-12 19:49:00,48.6,40.9,30.02,WNW,299,3.0,8.0,75,0.00,,,0.27,WUHU21623XXSP,2013-02-13 01:49:00,
2013-02-12 19:53:00,48.6,40.9,30.02,WNW,292,6.0,8.0,75,0.00,,,0.27,WUHU21623XXSP,2013-02-13 01:53:00,
2013-02-12 19:54:00,48.6,40.9,30.02,WNW,296,4.0,8.0,75,0.00,,,0.27,WUHU21623XXSP,2013-02-13 01:54:00,
2013-02-12 19:58:00,48.6,40.9,30.02,WNW,292,2.0,8.0,75,0.00,,,0.27,WUHU21623XXSP,2013-02-13 01:58:00,
2013-02-12 19:59:00,48.6,40.9,30.03,WNW,292,3.0,8.0,75,0.00,,,0.27,WUHU21623XXSP,2013-02-13 01:59:00,
2013-02-12 20:00:00,48.6,40.9,30.03,WNW,292,4.0,8.0,75,0.00,,,0.27,WUHU21623XXSP,2013-02-13 02:00:00,
2013-02-12 20:03:00,48.6,40.9,30.03,NW,315,3.0,5.0,75,0.00,,,0.27,WUHU21623XXSP,2013-02-13 02:03:00,
2013-02-12 20:05:00,48.6,40.9,30.02,WNW,300,4.0,6.0,75,0.00,,,0.27,WUHU21623XXSP,2013-02-13 02:05:00,
2013-02-12 20:08:00,48.6,41.3,30.02,NW,315,5.0,6.0,76,0.00,,,0.27,WUHU21623XXSP,2013-02-13 02:08:00,
2013-02-12 20:10:00,48.6,41.3,30.02,WNW,292,6.0,9.0,76,0.00,,,0.27,WUHU21623XXSP,2013-02-13 02:10:00,
2013-02-12 20:13:00,48.6,41.3,30.02,WNW,292,5.0,9.0,76,0.00,,,0.27,WUHU21623XXSP,2013-02-13 02:13:00,
2013-02-12 20:14:00,48.4,41.1,30.02,WNW,300,6.0,9.0,76,0.00,,,0.27,WUHU21623XXSP,2013-02-13 02:14:00,
2013-02-12 20:15:00,48.4,41.1,30.03,NW,314,5.0,9.0,76,0.00,,,0.27,WUHU21623XXSP,2013-02-13 02:15:00,
2013-02-12 20:18:00,48.4,41.1,30.02,WNW,303,7.0,11.0,76,0.00,,,0.27,WUHU21623XXSP,2013-02-13 02:18:00,
2013-02-12 20:19:00,48.4,41.1,30.02,NW,310,7.0,11.0,76,0.00,,,0.27,WUHU21623XXSP,2013-02-13 02:19:00,
2013-02-12 20:20:00,48.4,41.1,30.02,NW,312,5.0,11.0,76,0.00,,,0.27,WUHU21623XXSP,2013-02-13 02:20:00,
2013-02-12 20:23:00,48.2,40.9,30.03,WNW,299,7.0,11.0,76,0.00,,,0.27,WUHU21623XXSP,2013-02-13 02:23:00,
2013-02-12 20:24:00,48.2,40.9,30.03,WNW,300,7.0,11.0,76,0.00,,,0.27,WUHU21623XXSP,2013-02-13 02:24:00,
2013-02-12 20:25:00,48.2,40.9,30.03,NW,315,7.0,11.0,76,0.00,,,0.27,WUHU21623XXSP,2013-02-13 02:25:00,
2013-02-12 20:26:00,48.2,40.9,30.02,WNW,298,6.0,11.0,76,0.00,,,0.27,WUHU21623XXSP,2013-02-13 02:26:00,
2013-02-12 20:29:00,48.0,40.7,30.03,WNW,300,6.0,11.0,76,0.00,,,0.27,WUHU21623XXSP,2013-02-13 02:29:00,
2013-02-12 20:30:00,48.0,40.7,30.03,WNW,292,7.0,11.0,76,0.00,,,0.27,WUHU21623XXSP,2013-02-13 02:30:00,
2013-02-12 20:31:00,48.0,40.7,30.03,West,279,7.0,11.0,76,0.00,,,0.27,WUHU21623XXSP,2013-02-13 02:31:00,
2013-02-12 20:34:00,48.0,41.1,30.03,WNW,291,5.0,11.0,77,0.00,,,0.27,WUHU21623XXSP,2013-02-13 02:34:00,
2013-02-12 20:35:00,48.0,41.1,30.03,WNW,292,7.0,10.0,77,0.00,,,0.27,WUHU21623XXSP,2013-02-13 02:35:00,
2013-02-12 20:36:00,48.0,41.1,30.03,WNW,303,5.0,10.0,77,0.00,,,0.27,WUHU21623XXSP,2013-02-13 02:36:00,
2013-02-12 20:39:00,48.0,41.1,30.03,NW,315,6.0,10.0,77,0.00,,,0.27,WUHU21623XXSP,2013-02-13 02:39:00,
2013-02-12 20:40:00,48.0,41.1,30.03,WNW,292,9.0,10.0,77,0.00,,,0.27,WUHU21623XXSP,2013-02-13 02:40:00,
2013-02-12 20:42:00,48.0,41.1,30.03,WNW,292,10.0,12.0,77,0.00,,,0.27,WUHU21623XXSP,2013-02-13 02:42:00,
2013-02-12 20:44:00,48.0,41.1,30.03,West,270,8.0,12.0,77,0.00,,,0.27,WUHU21623XXSP,2013-02-13 02:44:00,
2013-02-12 20:45:00,48.0,41.1,30.03,WNW,288,7.0,12.0,77,0.00,,,0.27,WUHU21623XXSP,2013-02-13 02:45:00,
2013-02-12 20:47:00,48.0,41.1,30.03,WNW,292,8.0,12.0,77,0.00,,,0.27,WUHU21623XXSP,2013-02-13 02:47:00,
2013-02-12 20:49:00,48.0,41.1,30.03,WNW,294,6.0,12.0,77,0.00,,,0.27,WUHU21623XXSP,2013-02-13 02:49:00,
2013-02-12 20:51:00,48.0,41.1,30.03,NW,315,3.0,12.0,77,0.00,,,0.27,WUHU21623XXSP,2013-02-13 02:51:00,
2013-02-12 20:52:00,48.0,41.1,30.03,WNW,300,5.0,9.0,77,0.00,,,0.27,WUHU21623XXSP,2013-02-13 02:52:00,
2013-02-12 20:54:00,48.0,41.1,30.03,WNW,298,6.0,9.0,77,0.00,,,0.27,WUHU21623XXSP,2013-02-13 02:54:00,
2013-02-12 20:56:00,48.0,41.1,30.03,WNW,284,4.0,9.0,77,0.00,,,0.27,WUHU21623XXSP,2013-02-13 02:56:00,
2013-02-12 20:57:00,48.0,41.1,30.03,NW,315,7.0,9.0,77,0.00,,,0.27,WUHU21623XXSP,2013-02-13 02:57:00,
2013-02-12 20:59:00,48.0,41.1,30.04,WNW,293,5.0,9.0,77,0.00,,,0.27,WUHU21623XXSP,2013-02-13 02:59:00,
2013-02-12 21:00:00,48.0,41.1,30.04,WNW,293,5.0,9.0,77,0.00,,,0.27,WUHU21623XXSP,2013-02-13 03:00:00,
2013-02-12 21:01:00,48.0,41.1,30.04,WNW,302,5.0,9.0,77,0.00,,,0.27,WUHU21623XXSP,2013-02-13 03:01:00,
2013-02-12 21:03:00,48.0,41.1,30.04,WNW,298,6.0,9.0,77,0.00,,,0.27,WUHU21623XXSP,2013-02-13 03:03:00,
2013-02-12 21:04:00,48.0,41.1,30.03,WNW,292,9.0,9.0,77,0.00,,,0.27,WUHU21623XXSP,2013-02-13 03:04:00,
2013-02-12 21:05:00,48.0,41.1,30.03,WNW,295,6.0,9.0,77,0.00,,,0.27,WUHU21623XXSP,2013-02-13 03:05:00,
2013-02-12 21:06:00,48.0,41.1,30.03,WNW,299,5.0,9.0,77,0.00,,,0.27,WUHU21623XXSP,2013-02-13 03:06:00,
2013-02-12 21:08:00,48.0,41.1,30.03,WNW,292,7.0,9.0,77,0.00,,,0.27,WUHU21623XXSP,2013-02-13 03:08:00,
2013-02-12 21:10:00,48.0,41.1,30.04,North,0,4.0,9.0,77,0.00,,,0.27,WUHU21623XXSP,2013-02-13 03:10:00,
2013-02-12 21:11:00,48.0,41.1,30.03,NW,315,6.0,9.0,77,0.00,,,0.27,WUHU21623XXSP,2013-02-13 03:11:00,
2013-02-12 21:13:00,48.0,41.1,30.03,WNW,292,7.0,9.0,77,0.00,,,0.27,WUHU21623XXSP,2013-02-13 03:13:00,
2013-02-12 21:15:00,48.0,41.1,30.03,WNW,301,6.0,9.0,77,0.00,,,0.27,WUHU21623XXSP,2013-02-13 03:15:00,
2013-02-12 21:17:00,48.0,41.1,30.04,NNW,337,7.0,9.0,77,0.00,,,0.27,WUHU21623XXSP,2013-02-13 03:17:00,
2013-02-12 21:18:00,48.0,41.1,30.04,WNW,301,6.0,9.0,77,0.00,,,0.27,WUHU21623XXSP,2013-02-13 03:18:00,
2013-02-12 21:20:00,48.0,41.1,30.04,WNW,303,5.0,9.0,77,0.00,,,0.27,WUHU21623XXSP,2013-02-13 03:20:00,
2013-02-12 21:22:00,48.0,41.1,30.04,NW,315,7.0,9.0,77,0.00,,,0.27,WUHU21623XXSP,2013-02-13 03:22:00,
2013-02-12 21:23:00,48.0,41.1,30.04,NW,309,6.0,9.0,77,0.00,,,0.27,WUHU21623XXSP,2013-02-13 03:23:00,
2013-02-12 21:25:00,48.0,41.1,30.04,WNW,298,4.0,9.0,77,0.00,,,0.27,WUHU21623XXSP,2013-02-13 03:25:00,
2013-02-12 21:27:00,48.0,41.1,30.04,NW,315,5.0,9.0,77,0.00,,,0.27,WUHU21623XXSP,2013-02-13 03:27:00,
2013-02-12 21:28:00,48.0,41.1,30.04,WNW,302,6.0,9.0,77,0.00,,,0.27,WUHU21623XXSP,2013-02-13 03:28:00,
2013-02-12 21:30:00,48.0,41.1,30.04,NW,315,4.0,9.0,77,0.00,,,0.27,WUHU21623XXSP,2013-02-13 03:30:00,
2013-02-12 21:31:00,48.0,41.1,30.04,WNW,299,4.0,9.0,77,0.00,,,0.27,WUHU21623XXSP,2013-02-13 03:31:00,
2013-02-12 21:32:00,48.0,41.1,30.04,NNW,337,9.0,10.0,77,0.00,,,0.27,WUHU21623XXSP,2013-02-13 03:32:00,
2013-02-12 21:33:00,48.0,41.1,30.04,WNW,292,10.0,10.0,77,0.00,,,0.27,WUHU21623XXSP,2013-02-13 03:33:00,
2013-02-12 21:35:00,47.8,40.9,30.04,WNW,292,7.0,10.0,77,0.00,,,0.27,WUHU21623XXSP,2013-02-13 03:35:00,
2013-02-12 21:36:00,47.8,40.9,30.04,WNW,292,5.0,10.0,77,0.00,,,0.27,WUHU21623XXSP,2013-02-13 03:36:00,
2013-02-12 21:37:00,47.8,40.9,30.05,WNW,300,5.0,10.0,77,0.00,,,0.27,WUHU21623XXSP,2013-02-13 03:37:00,
2013-02-12 21:38:00,47.8,40.9,30.05,WNW,295,5.0,10.0,77,0.00,,,0.27,WUHU21623XXSP,2013-02-13 03:38:00,
2013-02-12 21:40:00,47.8,40.9,30.05,WNW,296,7.0,11.0,77,0.00,,,0.27,WUHU21623XXSP,2013-02-13 03:40:00,
2013-02-12 21:41:00,47.8,40.9,30.05,WNW,296,7.0,11.0,77,0.00,,,0.27,WUHU21623XXSP,2013-02-13 03:41:00,
2013-02-12 21:42:00,47.8,40.9,30.05,NW,305,7.0,11.0,77,0.00,,,0.27,WUHU21623XXSP,2013-02-13 03:42:00,
2013-02-12 21:43:00,47.8,40.9,30.05,NW,315,6.0,11.0,77,0.00,,,0.27,WUHU21623XXSP,2013-02-13 03:43:00,
2013-02-12 21:45:00,47.7,40.7,30.05,West,270,7.0,11.0,77,0.00,,,0.27,WUHU21623XXSP,2013-02-13 03:45:00,
2013-02-12 21:46:00,47.7,40.7,30.05,WNW,301,5.0,11.0,77,0.00,,,0.27,WUHU21623XXSP,2013-02-13 03:46:00,
2013-02-12 21:48:00,47.7,40.7,30.05,WNW,300,5.0,11.0,77,0.00,,,0.27,WUHU21623XXSP,2013-02-13 03:48:00,
2013-02-12 21:51:00,47.7,40.7,30.05,WNW,293,5.0,9.0,77,0.00,,,0.27,WUHU21623XXSP,2013-02-13 03:51:00,
2013-02-12 21:53:00,47.7,40.7,30.05,NW,307,6.0,8.0,77,0.00,,,0.27,WUHU21623XXSP,2013-02-13 03:53:00,
2013-02-12 21:54:00,47.5,40.6,30.05,WNW,292,7.0,7.0,77,0.00,,,0.27,WUHU21623XXSP,2013-02-13 03:54:00,
2013-02-12 21:56:00,47.5,40.6,30.05,WNW,292,8.0,8.0,77,0.00,,,0.27,WUHU21623XXSP,2013-02-13 03:56:00,
2013-02-12 21:58:00,47.5,40.6,30.05,WNW,292,11.0,11.0,77,0.00,,,0.27,WUHU21623XXSP,2013-02-13 03:58:00,
2013-02-12 21:59:00,47.5,40.6,30.05,WNW,292,15.0,15.0,77,0.00,,,0.27,WUHU21623XXSP,2013-02-13 03:59:00,
2013-02-12 22:01:00,47.5,40.6,30.05,WNW,292,10.0,15.0,77,0.00,,,0.27,WUHU21623XXSP,2013-02-13 04:01:00,
2013-02-12 22:03:00,47.3,40.4,30.06,NW,309,10.0,15.0,77,0.00,,,0.27,WUHU21623XXSP,2013-02-13 04:03:00,
2013-02-12 22:04:00,47.3,40.4,30.06,NW,315,11.0,15.0,77,0.00,,,0.27,WUHU21623XXSP,2013-02-13 04:04:00,
2013-02-12 22:06:00,47.3,40.4,30.06,WNW,296,6.0,15.0,77,0.00,,,0.27,WUHU21623XXSP,2013-02-13 04:06:00,
2013-02-12 22:08:00,47.3,40.4,30.06,WNW,292,9.0,12.0,77,0.00,,,0.27,WUHU21623XXSP,2013-02-13 04:08:00,
2013-02-12 22:10:00,47.3,40.4,30.06,WNW,292,9.0,12.0,77,0.00,,,0.27,WUHU21623XXSP,2013-02-13 04:10:00,
2013-02-12 22:11:00,47.3,40.4,30.06,WNW,292,9.0,12.0,77,0.00,,,0.27,WUHU21623XXSP,2013-02-13 04:11:00,
2013-02-12 22:12:00,47.1,40.3,30.06,WNW,290,7.0,12.0,77,0.00,,,0.27,WUHU21623XXSP,2013-02-13 04:12:00,
2013-02-12 22:13:00,47.1,40.3,30.06,North,0,10.0,12.0,77,0.00,,,0.27,WUHU21623XXSP,2013-02-13 04:13:00,
2013-02-12 22:15:00,47.1,40.3,30.06,NW,310,8.0,12.0,77,0.00,,,0.27,WUHU21623XXSP,2013-02-13 04:15:00,
2013-02-12 22:16:00,47.1,40.3,30.06,WNW,295,7.0,12.0,77,0.00,,,0.27,WUHU21623XXSP,2013-02-13 04:16:00,
2013-02-12 22:17:00,47.1,40.3,30.06,WNW,292,6.0,12.0,77,0.00,,,0.27,WUHU21623XXSP,2013-02-13 04:17:00,
2013-02-12 22:19:00,47.1,40.3,30.06,WNW,292,5.0,11.0,77,0.00,,,0.27,WUHU21623XXSP,2013-02-13 04:19:00,
2013-02-12 22:20:00,47.1,40.3,30.06,NW,315,8.0,11.0,77,0.00,,,0.27,WUHU21623XXSP,2013-02-13 04:20:00,
2013-02-12 22:21:00,47.1,40.3,30.06,WNW,303,7.0,11.0,77,0.00,,,0.27,WUHU21623XXSP,2013-02-13 04:21:00,
2013-02-12 22:22:00,47.1,40.3,30.06,WNW,303,7.0,11.0,77,0.00,,,0.27,WUHU21623XXSP,2013-02-13 04:22:00,
2013-02-12 22:24:00,47.1,40.3,30.06,West,270,7.0,12.0,77,0.00,,,0.27,WUHU21623XXSP,2013-02-13 04:24:00,
2013-02-12 22:25:00,47.1,40.3,30.06,WNW,287,6.0,12.0,77,0.00,,,0.27,WUHU21623XXSP,2013-02-13 04:25:00,
2013-02-12 22:26:00,47.1,40.3,30.06,WNW,297,4.0,12.0,77,0.00,,,0.27,WUHU21623XXSP,2013-02-13 04:26:00,
2013-02-12 22:27:00,47.1,40.3,30.06,West,270,9.0,12.0,77,0.00,,,0.27,WUHU21623XXSP,2013-02-13 04:27:00,
2013-02-12 22:29:00,47.1,40.6,30.06,WNW,292,9.0,12.0,78,0.00,,,0.27,WUHU21623XXSP,2013-02-13 04:29:00,
2013-02-12 22:30:00,46.9,40.4,30.06,NW,305,9.0,12.0,78,0.00,,,0.27,WUHU21623XXSP,2013-02-13 04:30:00,
2013-02-12 22:31:00,46.9,40.4,30.06,WNW,292,11.0,12.0,78,0.00,,,0.27,WUHU21623XXSP,2013-02-13 04:31:00,
2013-02-12 22:32:00,46.9,40.4,30.06,WNW,292,7.0,12.0,78,0.00,,,0.27,WUHU21623XXSP,2013-02-13 04:32:00,
2013-02-12 22:34:00,46.9,40.4,30.06,WNW,302,7.0,11.0,78,0.00,,,0.27,WUHU21623XXSP,2013-02-13 04:34:00,
2013-02-12 22:35:00,46.9,40.4,30.06,NW,315,12.0,12.0,78,0.00,,,0.27,WUHU21623XXSP,2013-02-13 04:35:00,
2013-02-12 22:36:00,46.9,40.4,30.06,NW,309,10.0,12.0,78,0.00,,,0.27,WUHU21623XXSP,2013-02-13 04:36:00,
2013-02-12 22:37:00,46.9,40.4,30.06,WNW,292,10.0,13.0,78,0.00,,,0.27,WUHU21623XXSP,2013-02-13 04:37:00,
2013-02-12 22:39:00,46.9,40.4,30.06,NW,315,11.0,13.0,78,0.00,,,0.27,WUHU21623XXSP,2013-02-13 04:39:00,
2013-02-12 22:40:00,46.8,40.3,30.06,NW,316,9.0,13.0,78,0.00,,,0.27,WUHU21623XXSP,2013-02-13 04:40:00,
2013-02-12 22:42:00,46.8,40.3,30.07,NW,304,8.0,13.0,78,0.00,,,0.27,WUHU21623XXSP,2013-02-13 04:42:00,
2013-02-12 22:43:00,46.8,40.3,30.07,NW,312,8.0,13.0,78,0.00,,,0.27,WUHU21623XXSP,2013-02-13 04:43:00,
2013-02-12 22:44:00,46.6,40.1,30.07,NW,317,9.0,15.0,78,0.00,,,0.27,WUHU21623XXSP,2013-02-13 04:44:00,
2013-02-12 22:45:00,46.6,40.1,30.07,NW,325,9.0,15.0,78,0.00,,,0.27,WUHU21623XXSP,2013-02-13 04:45:00,
2013-02-12 22:47:00,46.6,40.1,30.07,NW,315,6.0,15.0,78,0.00,,,0.27,WUHU21623XXSP,2013-02-13 04:47:00,
2013-02-12 22:48:00,46.6,40.1,30.07,NW,315,11.0,15.0,78,0.00,,,0.27,WUHU21623XXSP,2013-02-13 04:48:00,
2013-02-12 22:50:00,46.4,40.0,30.07,WNW,292,9.0,15.0,78,0.00,,,0.27,WUHU21623XXSP,2013-02-13 04:50:00,
2013-02-12 22:53:00,46.2,39.8,30.08,WNW,301,10.0,15.0,78,0.00,,,0.27,WUHU21623XXSP,2013-02-13 04:53:00,
2013-02-12 22:55:00,46.2,39.8,30.08,NNW,337,7.0,14.0,78,0.00,,,0.27,WUHU21623XXSP,2013-02-13 04:55:00,
2013-02-12 22:58:00,46.0,39.6,30.08,NW,309,6.0,14.0,78,0.00,,,0.27,WUHU21623XXSP,2013-02-13 04:58:00,
2013-02-12 23:00:00,46.0,39.6,30.08,NW,315,6.0,14.0,78,0.00,,,0.27,WUHU21623XXSP,2013-02-13 05:00:00,
2013-02-12 23:05:00,45.7,39.2,30.08,NW,315,10.0,13.0,78,0.00,,,0.27,WUHU21623XXSP,2013-02-13 05:05:00,
2013-02-12 23:06:00,45.7,39.2,30.08,WNW,300,10.0,13.0,78,0.00,,,0.27,WUHU21623XXSP,2013-02-13 05:06:00,
2013-02-12 23:10:00,45.5,39.4,30.09,WNW,303,7.0,13.0,79,0.00,,,0.27,WUHU21623XXSP,2013-02-13 05:10:00,
2013-02-12 23:11:00,45.5,39.4,30.09,NW,315,10.0,13.0,79,0.00,,,0.27,WUHU21623XXSP,2013-02-13 05:11:00,
2013-02-12 23:15:00,45.3,39.2,30.08,NW,315,9.0,13.0,79,0.00,,,0.27,WUHU21623XXSP,2013-02-13 05:15:00,
2013-02-12 23:16:00,45.3,39.2,30.09,NW,315,8.0,13.0,79,0.00,,,0.27,WUHU21623XXSP,2013-02-13 05:16:00,
2013-02-12 23:20:00,45.1,39.0,30.09,WNW,292,11.0,13.0,79,0.00,,,0.27,WUHU21623XXSP,2013-02-13 05:20:00,
2013-02-12 23:21:00,45.1,39.0,30.09,WNW,297,10.0,14.0,79,0.00,,,0.27,WUHU21623XXSP,2013-02-13 05:21:00,
2013-02-12 23:25:00,45.0,38.9,30.09,WNW,292,10.0,14.0,79,0.00,,,0.27,WUHU21623XXSP,2013-02-13 05:25:00,
2013-02-12 23:26:00,45.0,38.9,30.09,NW,310,10.0,14.0,79,0.00,,,0.27,WUHU21623XXSP,2013-02-13 05:26:00,
2013-02-12 23:30:00,44.8,38.7,30.09,NW,304,7.0,14.0,79,0.02,,,0.29,WUHU21623XXSP,2013-02-13 05:30:00,
2013-02-12 23:31:00,44.8,38.7,30.09,West,270,6.0,11.0,79,0.02,,,0.29,WUHU21623XXSP,2013-02-13 05:31:00,
2013-02-12 23:35:00,44.8,38.7,30.09,WNW,291,7.0,12.0,79,0.02,,,0.29,WUHU21623XXSP,2013-02-13 05:35:00,
2013-02-12 23:36:00,44.8,38.7,30.09,WNW,295,7.0,12.0,79,0.02,,,0.29,WUHU21623XXSP,2013-02-13 05:36:00,
2013-02-12 23:39:00,44.6,38.5,30.09,WNW,292,8.0,12.0,79,0.02,,,0.29,WUHU21623XXSP,2013-02-13 05:39:00,
2013-02-12 23:40:00,44.6,38.7,30.09,WNW,295,4.0,12.0,79,0.02,,,0.29,WUHU21623XXSP,2013-02-13 05:40:00,
2013-02-12 23:41:00,44.6,38.5,30.09,WNW,292,6.0,12.0,79,0.02,,,0.29,WUHU21623XXSP,2013-02-13 05:41:00,
2013-02-12 23:44:00,44.8,38.7,30.10,NW,314,9.0,11.0,79,0.02,,,0.29,WUHU21623XXSP,2013-02-13 05:44:00,
2013-02-12 23:46:00,44.6,38.5,30.10,WNW,303,9.0,13.0,79,0.02,,,0.29,WUHU21623XXSP,2013-02-13 05:46:00,
2013-02-12 23:49:00,44.4,38.3,30.10,WNW,295,9.0,13.0,79,0.02,,,0.29,WUHU21623XXSP,2013-02-13 05:49:00,
2013-02-12 23:51:00,44.4,38.3,30.10,WNW,292,18.0,18.0,79,0.02,,,0.29,WUHU21623XXSP,2013-02-13 05:51:00,
2013-02-12 23:54:00,44.4,38.3,30.10,WNW,292,11.0,19.0,79,0.02,,,0.29,WUHU21623XXSP,2013-02-13 05:54:00,
2013-02-12 23:56:00,44.2,38.1,30.10,NW,315,9.0,19.0,79,0.02,,,0.29,WUHU21623XXSP,2013-02-13 05:56:00,
2013-02-12 23:59:00,44.1,37.6,30.11,WNW,292,11.0,19.0,78,0.02,,,0.29,WUHU21623XXSP,2013-02-13 05:59:00,